KE7RQW Weather Reports


time (UTC)temp
C
wind
direction
speed
KPH
gust
KPH
rain 1hr
cm
rain 24hr
cm
rain mn
cm
humidity
%
barometer
mb
20191019154639 7 273 24.1 37.0 0.00 0.00 0.00 36 1022.7
20191019154540 6 286 20.9 37.0 0.00 0.00 0.00 36 1022.7
20191019154440 6 246 19.3 37.0 0.00 0.00 0.00 36 1022.7
20191019154340 6 281 19.3 37.0 0.00 0.00 0.00 36 1022.7
20191019154238 6 285 22.5 37.0 0.00 0.00 0.00 36 1022.7
20191019154140 6 264 27.4 37.0 0.00 0.00 0.00 36 1022.7
20191019154037 6 266 27.4 37.0 0.00 0.00 0.00 36 1022.7
20191019153935 6 241 22.5 37.0 0.00 0.00 0.00 36 1022.8
20191019153832 6 244 25.7 37.0 0.00 0.00 0.00 36 1022.8
20191019153737 6 281 29.0 37.0 0.00 0.00 0.00 36 1022.7
20191019153634 6 279 29.0 41.8 0.00 0.00 0.00 36 1022.7
20191019153535 6 274 29.0 41.8 0.00 0.00 0.00 36 1022.8
20191019153430 6 257 29.0 41.8 0.00 0.00 0.00 36 1022.7
20191019153331 6 261 22.5 41.8 0.00 0.00 0.00 36 1022.8
20191019153227 6 267 30.6 41.8 0.00 0.00 0.00 36 1022.7
20191019153134 6 269 29.0 41.8 0.00 0.00 0.00 36 1022.7
20191019153027 6 254 32.2 41.8 0.00 0.00 0.00 36 1022.7
20191019152932 6 246 32.2 41.8 0.00 0.00 0.00 36 1022.7
20191019152828 6 260 35.4 45.1 0.00 0.00 0.00 36 1022.7
20191019152727 6 252 27.4 45.1 0.00 0.00 0.00 36 1022.7
20191019152627 6 254 27.4 45.1 0.00 0.00 0.00 37 1022.7
20191019152526 6 268 19.3 45.1 0.00 0.00 0.00 36 1022.7
20191019152424 6 246 20.9 45.1 0.00 0.00 0.00 36 1022.8
20191019152328 6 270 29.0 45.1 0.00 0.00 0.00 36 1022.6
20191019152227 6 281 29.0 45.1 0.00 0.00 0.00 36 1022.7
20191019152129 6 270 30.6 45.1 0.00 0.00 0.00 36 1022.6
20191019152045 6 284 33.8 45.1 0.00 0.00 0.00 36 1022.6
20191019151925 6 281 32.2 41.8 0.00 0.00 0.00 36 1022.6
20191019151825 6 284 20.9 40.2 0.00 0.00 0.00 36 1022.7
20191019151725 6 267 24.1 40.2 0.00 0.00 0.00 36 1022.7
20191019151644 6 290 24.1 40.2 0.00 0.00 0.00 36 1022.6
20191019151525 6 273 32.2 40.2 0.00 0.00 0.00 36 1022.6
20191019151441 6 292 27.4 40.2 0.00 0.00 0.00 36 1022.7
20191019151342 6 269 25.7 38.6 0.00 0.00 0.00 36 1022.6
20191019151239 6 273 27.4 38.6 0.00 0.00 0.00 36 1022.7
20191019151122 6 288 30.6 38.6 0.00 0.00 0.00 36 1022.7
20191019151041 6 271 27.4 38.6 0.00 0.00 0.00 36 1022.6
20191019150943 6 255 22.5 37.0 0.00 0.00 0.00 36 1022.7
20191019150838 6 238 22.5 37.0 0.00 0.00 0.00 36 1022.6
20191019150742 6 264 19.3 37.0 0.00 0.00 0.00 36 1022.5
20191019150638 6 291 24.1 37.0 0.00 0.00 0.00 36 1022.5
20191019150525 6 254 19.3 37.0 0.00 0.00 0.00 36 1022.5
20191019150445 6 295 22.5 37.0 0.00 0.00 0.00 36 1022.6
20191019150324 6 240 25.7 37.0 0.00 0.00 0.00 36 1022.5
20191019150243 6 248 22.5 35.4 0.00 0.00 0.00 36 1022.4
20191019150146 6 259 22.5 35.4 0.00 0.00 0.00 36 1022.5
20191019150040 6 271 27.4 43.5 0.00 0.00 0.00 36 1022.5
20191019145941 6 296 29.0 43.5 0.00 0.00 0.00 36 1022.4
20191019145841 6 265 22.5 43.5 0.00 0.00 0.00 36 1022.5
20191019145741 6 285 17.7 43.5 0.00 0.00 0.00 36 1022.5
20191019145640 5 306 20.9 43.5 0.00 0.00 0.00 36 1022.4
20191019145540 5 264 22.5 43.5 0.00 0.00 0.00 36 1022.4
20191019145439 5 284 22.5 43.5 0.00 0.00 0.00 36 1022.4
20191019145340 5 250 22.5 43.5 0.00 0.00 0.00 36 1022.4
20191019145238 5 259 30.6 43.5 0.00 0.00 0.00 36 1022.4
20191019145141 5 275 35.4 43.5 0.00 0.00 0.00 36 1022.3
20191019145039 5 237 30.6 43.5 0.00 0.00 0.00 36 1022.3
20191019144923 5 271 27.4 43.5 0.00 0.00 0.00 37 1022.3
20191019144841 5 271 29.0 43.5 0.00 0.00 0.00 37 1022.3
20191019144725 5 265 27.4 43.5 0.00 0.00 0.00 37 1022.3
20191019144640 5 264 24.1 43.5 0.00 0.00 0.00 37 1022.3
20191019144527 5 270 24.1 43.5 0.00 0.00 0.00 37 1022.2
20191019144426 5 273 29.0 43.5 0.00 0.00 0.00 38 1022.2
20191019144327 5 284 27.4 43.5 0.00 0.00 0.00 38 1022.2
20191019144243 5 276 32.2 43.5 0.00 0.00 0.00 38 1022.2
20191019144144 5 239 30.6 43.5 0.00 0.00 0.00 38 1022.2
20191019144040 5 257 27.4 43.5 0.00 0.00 0.00 38 1022.2
20191019143927 5 282 29.0 43.5 0.00 0.00 0.00 38 1022.2
20191019143826 5 256 33.8 43.5 0.00 0.00 0.00 38 1022.1
20191019143726 5 272 33.8 43.5 0.00 0.00 0.00 39 1022.2
20191019143625 5 236 25.7 37.0 0.00 0.00 0.00 39 1022.1
20191019143525 5 271 27.4 37.0 0.00 0.00 0.00 39 1022.2
20191019143444 5 273 24.1 37.0 0.00 0.00 0.00 39 1022.1
20191019143325 4 269 25.7 33.8 0.00 0.00 0.00 40 1022.1
20191019143225 4 276 25.7 33.8 0.00 0.00 0.00 40 1022.1
20191019143128 4 268 22.5 32.2 0.00 0.00 0.00 41 1022.2
20191019143041 4 254 19.3 32.2 0.00 0.00 0.00 41 1022.1
20191019142925 3 269 25.7 32.2 0.00 0.00 0.00 41 1022.1
20191019142841 3 262 24.1 32.2 0.00 0.00 0.00 42 1022.1
20191019142741 3 250 24.1 32.2 0.00 0.00 0.00 42 1022.2
20191019142641 3 261 19.3 32.2 0.00 0.00 0.00 42 1022.2
20191019142525 3 268 11.3 24.1 0.00 0.00 0.00 43 1022.2
20191019142441 3 257 8.0 20.9 0.00 0.00 0.00 43 1022.1
20191019142325 3 234 12.9 20.9 0.00 0.00 0.00 43 1022.2
20191019142241 3 234 12.9 20.9 0.00 0.00 0.00 43 1022.1
20191019142141 3 227 14.5 22.5 0.00 0.00 0.00 43 1023.0
20191019142039 3 200 14.5 25.7 0.00 0.00 0.00 43 1023.0
20191019141927 3 205 14.5 27.4 0.00 0.00 0.00 42 1022.9
20191019141842 3 205 14.5 32.2 0.00 0.00 0.00 42 1022.9
20191019141743 3 194 11.3 32.2 0.00 0.00 0.00 42 1023.0
20191019141639 3 207 12.9 32.2 0.00 0.00 0.00 42 1023.0
20191019141543 3 213 12.9 32.2 0.00 0.00 0.00 43 1022.9
20191019141439 3 212 12.9 32.2 0.00 0.00 0.00 43 1022.9
20191019141326 3 253 16.1 32.2 0.00 0.00 0.00 43 1022.8
20191019141225 3 256 22.5 32.2 0.00 0.00 0.00 43 1022.8
20191019141125 3 276 22.5 32.2 0.00 0.00 0.00 43 1022.8
20191019141044 3 246 22.5 32.2 0.00 0.00 0.00 43 1022.8
20191019140925 3 249 20.9 29.0 0.00 0.00 0.00 43 1022.9
20191019140841 3 246 22.5 29.0 0.00 0.00 0.00 43 1022.8
20191019140742 3 211 20.9 29.0 0.00 0.00 0.00 43 1022.7
20191019140641 3 266 19.3 29.0 0.00 0.00 0.00 43 1022.6
20191019140525 3 233 22.5 29.0 0.00 0.00 0.00 43 1022.6
20191019140441 3 246 20.9 29.0 0.00 0.00 0.00 43 1022.6
20191019140341 3 248 22.5 29.0 0.00 0.00 0.00 43 1022.7
20191019140239 3 233 22.5 29.0 0.00 0.00 0.00 43 1022.6
20191019140123 2 232 22.5 27.4 0.00 0.00 0.00 43 1022.6
20191019140025 2 246 20.9 27.4 0.00 0.00 0.00 43 1022.8
20191019135925 2 256 20.9 27.4 0.00 0.00 0.00 43 1022.7
20191019135844 2 248 22.5 27.4 0.00 0.00 0.00 43 1022.7
20191019135724 2 252 19.3 27.4 0.00 0.00 0.00 43 1022.8
20191019135643 2 230 17.7 27.4 0.00 0.00 0.00 43 1022.7
20191019135544 2 238 19.3 27.4 0.00 0.00 0.00 43 1022.6
20191019135441 2 259 19.3 27.4 0.00 0.00 0.00 43 1022.8
20191019135326 2 206 19.3 25.7 0.00 0.00 0.00 43 1022.7
20191019135241 2 227 17.7 25.7 0.00 0.00 0.00 43 1022.9
20191019135141 2 236 17.7 25.7 0.00 0.00 0.00 43 1022.8
20191019135040 2 259 16.1 27.4 0.00 0.00 0.00 43 1022.9
20191019134940 2 260 20.9 27.4 0.00 0.00 0.00 43 1022.9
20191019134838 2 248 19.3 27.4 0.00 0.00 0.00 42 1022.9
20191019134726 2 216 16.1 27.4 0.00 0.00 0.00 42 1022.8
20191019134642 2 210 17.7 27.4 0.00 0.00 0.00 42 1022.9
20191019134543 2 244 20.9 27.4 0.00 0.00 0.00 43 1022.9
20191019134439 2 241 22.5 27.4 0.00 0.00 0.00 42 1023.0
20191019134340 3 242 20.9 27.4 0.00 0.00 0.00 42 1023.0
20191019134236 3 249 20.9 27.4 0.00 0.00 0.00 42 1023.0
20191019134137 3 274 19.3 27.4 0.00 0.00 0.00 42 1023.1
20191019134037 3 240 19.3 29.0 0.00 0.00 0.00 42 1023.2
20191019133938 3 252 20.9 29.0 0.00 0.00 0.00 41 1023.1
20191019133834 3 230 19.3 29.0 0.00 0.00 0.00 41 1023.1
20191019133735 3 225 19.3 29.0 0.00 0.00 0.00 41 1023.1
20191019133631 3 250 19.3 29.0 0.00 0.00 0.00 41 1023.2
20191019133532 3 246 20.9 29.0 0.00 0.00 0.00 41 1023.2
20191019133428 3 236 20.9 29.0 0.00 0.00 0.00 41 1023.2
20191019133333 3 253 22.5 29.0 0.00 0.00 0.00 41 1023.2
20191019133228 3 234 24.1 29.0 0.00 0.00 0.00 41 1023.1
20191019133132 3 264 24.1 27.4 0.00 0.00 0.00 41 1023.1
20191019133026 3 238 20.9 25.7 0.00 0.00 0.00 41 1023.0
20191019132927 3 222 20.9 25.7 0.00 0.00 0.00 41 1023.0
20191019132823 3 269 20.9 30.6 0.00 0.00 0.00 41 1023.0
20191019132731 3 252 19.3 30.6 0.00 0.00 0.00 41 1022.9
20191019132628 3 220 16.1 30.6 0.00 0.00 0.00 41 1023.0
20191019132532 3 237 16.1 30.6 0.00 0.00 0.00 41 1023.0
20191019132428 3 227 14.5 30.6 0.00 0.00 0.00 41 1023.0
20191019132329 3 244 19.3 30.6 0.00 0.00 0.00 41 1023.0
20191019132225 3 217 19.3 30.6 0.00 0.00 0.00 41 1023.1
20191019132126 3 212 20.9 30.6 0.00 0.00 0.00 41 1023.0
20191019132026 3 260 24.1 30.6 0.00 0.00 0.00 41 1023.0
20191019131926 3 227 20.9 30.6 0.00 0.00 0.00 41 1023.0
20191019131825 3 253 24.1 30.6 0.00 0.00 0.00 41 1023.0
20191019131726 3 231 19.3 30.6 0.00 0.00 0.00 41 1022.9
20191019131642 3 237 17.7 30.6 0.00 0.00 0.00 41 1023.0
20191019131543 3 227 17.7 30.6 0.00 0.00 0.00 41 1023.2
20191019131439 3 215 19.3 30.6 0.00 0.00 0.00 41 1023.0
20191019131323 3 254 19.3 30.6 0.00 0.00 0.00 41 1023.1
20191019131241 3 242 20.9 30.6 0.00 0.00 0.00 41 1023.1
20191019131125 3 236 22.5 30.6 0.00 0.00 0.00 41 1023.0
20191019131041 3 230 20.9 29.0 0.00 0.00 0.00 41 1023.2
20191019130941 3 223 20.9 29.0 0.00 0.00 0.00 42 1023.2
20191019130839 3 264 24.1 29.0 0.00 0.00 0.00 42 1023.2
20191019130726 2 248 20.9 29.0 0.00 0.00 0.00 42 1023.2
20191019130624 2 243 24.1 29.0 0.00 0.00 0.00 42 1023.1
20191019130528 2 269 20.9 25.7 0.00 0.00 0.00 41 1023.1
20191019130428 2 249 17.7 20.9 0.00 0.00 0.00 41 1023.1
20191019130329 2 235 17.7 20.9 0.00 0.00 0.00 41 1023.1
20191019130244 2 253 16.1 20.9 0.00 0.00 0.00 41 1023.0
20191019130130 2 254 14.5 22.5 0.00 0.00 0.00 41 1023.1
20191019130025 2 240 12.9 22.5 0.00 0.00 0.00 41 1023.1
20191019125925 2 252 16.1 22.5 0.00 0.00 0.00 41 1023.1
20191019125844 2 249 17.7 22.5 0.00 0.00 0.00 41 1023.1
20191019125724 2 253 16.1 22.5 0.00 0.00 0.00 41 1023.1
20191019125643 2 249 17.7 24.1 0.00 0.00 0.00 42 1023.0
20191019125523 2 257 16.1 24.1 0.00 0.00 0.00 42 1023.1
20191019125426 2 261 16.1 24.1 0.00 0.00 0.00 42 1023.0
20191019125327 2 272 17.7 24.1 0.00 0.00 0.00 42 1023.0
20191019125223 2 248 19.3 24.1 0.00 0.00 0.00 42 1023.1
20191019125127 2 270 12.9 24.1 0.00 0.00 0.00 42 1023.0
20191019125043 2 239 14.5 24.1 0.00 0.00 0.00 42 1022.9
20191019124944 2 268 14.5 24.1 0.00 0.00 0.00 43 1023.0
20191019124825 2 242 16.1 24.1 0.00 0.00 0.00 43 1023.0
20191019124725 2 263 12.9 20.9 0.00 0.00 0.00 43 1023.0
20191019124644 2 260 11.3 20.9 0.00 0.00 0.00 43 1023.0
20191019124524 2 255 9.7 20.9 0.00 0.00 0.00 42 1022.9
20191019124443 2 249 11.3 20.9 0.00 0.00 0.00 43 1022.9
20191019124344 2 259 11.3 20.9 0.00 0.00 0.00 43 1022.9
20191019124240 1 259 14.5 20.9 0.00 0.00 0.00 44 1022.8
20191019124125 1 248 12.9 19.3 0.00 0.00 0.00 44 1022.9
20191019124041 1 244 14.5 19.3 0.00 0.00 0.00 45 1022.9
20191019123941 1 247 16.1 19.3 0.00 0.00 0.00 45 1022.9
20191019123840 1 260 14.5 19.3 0.00 0.00 0.00 44 1022.9
20191019123740 1 260 14.5 19.3 0.00 0.00 0.00 45 1022.9
20191019123638 1 268 16.1 19.3 0.00 0.00 0.00 45 1022.9
20191019123525 1 261 14.5 19.3 0.00 0.00 0.00 44 1022.9
20191019123444 1 265 11.3 17.7 0.00 0.00 0.00 45 1022.9
20191019123324 1 275 9.7 17.7 0.00 0.00 0.00 45 1022.9
20191019123243 1 261 11.3 17.7 0.00 0.00 0.00 45 1022.9
20191019123145 1 261 11.3 17.7 0.00 0.00 0.00 45 1022.9
20191019123040 1 259 12.9 17.7 0.00 0.00 0.00 46 1022.9
20191019122941 0 256 16.1 17.7 0.00 0.00 0.00 46 1022.9
20191019122841 0 257 14.5 17.7 0.00 0.00 0.00 46 1022.9
20191019122741 0 248 11.3 16.1 0.00 0.00 0.00 46 1022.9
20191019122640 0 254 12.9 17.7 0.00 0.00 0.00 46 1022.9
20191019122541 0 273 12.9 17.7 0.00 0.00 0.00 45 1022.9
20191019122437 0 261 12.9 17.7 0.00 0.00 0.00 45 1022.9
20191019122338 0 268 14.5 17.7 0.00 0.00 0.00 45 1023.0
20191019122234 0 269 12.9 17.7 0.00 0.00 0.00 45 1022.9
20191019122138 1 271 12.9 19.3 0.00 0.00 0.00 45 1022.9
20191019122038 1 281 12.9 24.1 0.00 0.00 0.00 45 1022.8
20191019121941 1 252 9.7 24.1 0.00 0.00 0.00 45 1022.9
20191019121840 1 250 11.3 24.1 0.00 0.00 0.00 45 1022.9
20191019121741 1 280 12.9 24.1 0.00 0.00 0.00 45 1022.9
20191019121637 1 270 12.9 24.1 0.00 0.00 0.00 45 1022.8
20191019121543 1 269 12.9 24.1 0.00 0.00 0.00 46 1022.9
20191019121438 1 260 14.5 24.1 0.00 0.00 0.00 46 1022.8
20191019121339 0 261 16.1 24.1 0.00 0.00 0.00 47 1022.9
20191019121235 0 271 16.1 24.1 0.00 0.00 0.00 48 1022.8
20191019121136 0 255 9.7 16.1 0.00 0.00 0.00 48 1022.8
20191019121033 0 264 11.3 16.1 0.00 0.00 0.00 48 1022.8
20191019120934 0 267 12.9 17.7 0.00 0.00 0.00 49 1022.9
20191019120834 0 263 16.1 17.7 0.00 0.00 0.00 49 1022.8
20191019120735 0 266 14.5 19.3 0.00 0.00 0.00 50 1022.9
20191019120631 0 261 9.7 19.3 0.00 0.00 0.00 51 1022.8
20191019120532 0 277 11.3 19.3 0.00 0.00 0.00 51 1022.7
20191019120428 0 310 6.4 19.3 0.00 0.00 0.00 51 1022.7
20191019120329 0 294 12.9 19.3 0.00 0.00 0.00 52 1022.6
20191019120228 0 262 9.7 19.3 0.00 0.00 0.00 53 1022.7
20191019120133 0 252 14.5 19.3 0.00 0.00 0.00 53 1022.6
20191019120028 -1 262 14.5 19.3 0.00 0.00 0.00 54 1022.7
20191019115929 -1 252 17.7 19.3 0.00 0.00 0.00 53 1022.6
20191019115825 -1 238 9.7 14.5 0.00 0.00 0.00 53 1022.7
20191019115726 -1 247 9.7 16.1 0.00 0.00 0.00 52 1022.6
20191019115642 -1 262 8.0 16.1 0.00 0.00 0.00 52 1022.6
20191019115527 0 261 9.7 16.1 0.00 0.00 0.00 52 1022.7
20191019115443 0 252 9.7 16.1 0.00 0.00 0.00 51 1022.7
20191019115344 0 270 9.7 16.1 0.00 0.00 0.00 51 1022.7
20191019115240 0 263 9.7 16.1 0.00 0.00 0.00 51 1022.7
20191019115141 0 257 11.3 16.1 0.00 0.00 0.00 51 1022.6
20191019115037 0 260 12.9 16.1 0.00 0.00 0.00 51 1022.6
20191019114938 0 271 12.9 16.1 0.00 0.00 0.00 51 1022.6
20191019114838 0 273 12.9 16.1 0.00 0.00 0.00 51 1022.5
20191019114739 0 264 12.9 14.5 0.00 0.00 0.00 51 1022.4
20191019114635 0 269 11.3 14.5 0.00 0.00 0.00 51 1022.4
20191019114536 0 263 11.3 14.5 0.00 0.00 0.00 51 1022.4
20191019114432 0 266 11.3 14.5 0.00 0.00 0.00 52 1022.4
20191019114333 0 279 11.3 14.5 0.00 0.00 0.00 52 1022.2
20191019114233 0 287 12.9 14.5 0.00 0.00 0.00 53 1022.4
20191019114134 0 282 12.9 14.5 0.00 0.00 0.00 52 1022.2
20191019114030 0 276 9.7 14.5 0.00 0.00 0.00 53 1022.3
20191019113931 0 275 8.0 14.5 0.00 0.00 0.00 53 1022.2
20191019113827 0 261 8.0 14.5 0.00 0.00 0.00 52 1022.3
20191019113728 0 276 9.7 14.5 0.00 0.00 0.00 53 1022.4
20191019113624 0 277 11.3 14.5 0.00 0.00 0.00 52 1022.5
20191019113532 0 278 11.3 14.5 0.00 0.00 0.00 52 1022.4
20191019113428 0 269 9.7 17.7 0.00 0.00 0.00 52 1022.5
20191019113329 0 273 8.0 17.7 0.00 0.00 0.00 52 1022.5
20191019113225 0 277 9.7 17.7 0.00 0.00 0.00 52 1022.5
20191019113130 0 286 9.7 17.7 0.00 0.00 0.00 52 1022.4
20191019113025 0 281 9.7 17.7 0.00 0.00 0.00 52 1022.4
20191019112930 0 294 11.3 17.7 0.00 0.00 0.00 52 1022.4
20191019112826 0 256 8.0 17.7 0.00 0.00 0.00 52 1022.4
20191019112727 0 270 9.7 17.7 0.00 0.00 0.00 52 1022.4
20191019112626 0 290 14.5 17.7 0.00 0.00 0.00 52 1022.3
20191019112527 0 293 11.3 16.1 0.00 0.00 0.00 52 1022.4
20191019112443 0 296 8.0 14.5 0.00 0.00 0.00 51 1022.3
20191019112344 0 297 11.3 14.5 0.00 0.00 0.00 51 1022.4
20191019112244 0 286 12.9 14.5 0.00 0.00 0.00 51 1022.4
20191019112124 0 281 9.7 14.5 0.00 0.00 0.00 50 1022.3
20191019112043 0 267 11.3 14.5 0.00 0.00 0.00 50 1023.0
20191019111944 0 267 11.3 14.5 0.00 0.00 0.00 50 1023.0
20191019111840 0 262 8.0 9.7 0.00 0.00 0.00 50 1023.0
20191019111741 0 248 8.0 9.7 0.00 0.00 0.00 50 1023.0
20191019111637 0 260 8.0 9.7 0.00 0.00 0.00 50 1022.9
20191019111541 0 263 9.7 9.7 0.00 0.00 0.00 50 1022.8
20191019111440 0 263 8.0 9.7 0.00 0.00 0.00 53 1022.8
20191019111340 0 260 6.4 9.7 0.00 0.00 0.00 50 1022.7
20191019111239 0 280 8.0 9.7 0.00 0.00 0.00 50 1022.7
20191019111140 0 280 8.0 9.7 0.00 0.00 0.00 50 1022.6
20191019111036 0 279 6.4 8.0 0.00 0.00 0.00 50 1022.5
20191019110941 0 273 6.4 8.0 0.00 0.00 0.00 51 1022.6
20191019110840 0 265 6.4 8.0 0.00 0.00 0.00 51 1022.6
20191019110740 0 265 6.4 8.0 0.00 0.00 0.00 50 1022.7
20191019110639 0 265 6.4 8.0 0.00 0.00 0.00 51 1022.7
20191019110539 0 269 4.8 8.0 0.00 0.00 0.00 50 1022.7
20191019110439 0 290 4.8 11.3 0.00 0.00 0.00 50 1022.7
20191019110340 0 292 6.4 11.3 0.00 0.00 0.00 50 1022.7
20191019110239 0 302 6.4 11.3 0.00 0.00 0.00 50 1022.5
20191019110145 0 319 4.8 11.3 0.00 0.00 0.00 50 1022.5
20191019110039 0 313 3.2 11.3 0.00 0.00 0.00 50 1022.5
20191019105939 0 319 4.8 11.3 0.00 0.00 0.00 50 1022.4
20191019105838 0 316 4.8 11.3 0.00 0.00 0.00 50 1022.7
20191019105738 0 330 4.8 11.3 0.00 0.00 0.00 50 1022.5
20191019105641 0 331 6.4 11.3 0.00 0.00 0.00 50 1022.6
20191019105542 0 318 3.2 9.7 0.00 0.00 0.00 51 1022.6
20191019105438 0 311 3.2 6.4 0.00 0.00 0.00 51 1022.6
20191019105339 0 298 3.2 8.0 0.00 0.00 0.00 50 1022.6
20191019105235 0 298 4.8 8.0 0.00 0.00 0.00 50 1022.5
20191019105136 0 298 6.4 8.0 0.00 0.00 0.00 50 1022.5
20191019105032 0 319 3.2 8.0 0.00 0.00 0.00 50 1022.5
20191019104937 0 319 3.2 8.0 0.00 0.00 0.00 53 1022.4
20191019104833 0 319 3.2 8.0 0.00 0.00 0.00 50 1022.4
20191019104734 0 320 1.6 8.0 0.00 0.00 0.00 50 1022.5
20191019104630 0 320 3.2 8.0 0.00 0.00 0.00 50 1022.5
20191019104531 0 321 6.4 8.0 0.00 0.00 0.00 50 1022.6
20191019104427 0 315 4.8 8.0 0.00 0.00 0.00 50 1022.6
20191019104332 0 234 4.8 6.4 0.00 0.00 0.00 50 1022.7
20191019104228 0 232 4.8 6.4 0.00 0.00 0.00 50 1022.5
20191019104128 0 233 6.4 6.4 0.00 0.00 0.00 50 1022.4
20191019104027 0 233 4.8 6.4 0.00 0.00 0.00 50 1022.4
20191019103928 0 243 4.8 6.4 0.00 0.00 0.00 50 1022.5
20191019103844 0 237 4.8 6.4 0.00 0.00 0.00 50 1022.5
20191019103745 0 248 4.8 6.4 0.00 0.00 0.00 50 1022.6
20191019103645 0 236 3.2 6.4 0.00 0.00 0.00 51 1022.5
20191019103526 0 232 3.2 6.4 0.00 0.00 0.00 51 1022.5
20191019103442 0 232 3.2 6.4 0.00 0.00 0.00 51 1022.4
20191019103343 0 232 1.6 6.4 0.00 0.00 0.00 51 1022.5
20191019103239 0 196 1.6 6.4 0.00 0.00 0.00 51 1022.6
20191019103144 0 195 3.2 6.4 0.00 0.00 0.00 51 1022.6
20191019103039 0 318 0.0 4.8 0.00 0.00 0.00 51 1022.6
20191019102944 0 318 1.6 6.4 0.00 0.00 0.00 51 1022.5
20191019102840 0 315 3.2 6.4 0.00 0.00 0.00 51 1022.7
20191019102741 0 314 3.2 9.7 0.00 0.00 0.00 52 1022.6
20191019102640 0 313 1.6 9.7 0.00 0.00 0.00 52 1022.6
20191019102540 0 311 1.6 9.7 0.00 0.00 0.00 52 1022.6
20191019102438 0 312 3.2 9.7 0.00 0.00 0.00 52 1022.7
20191019102326 0 330 1.6 14.5 0.00 0.00 0.00 52 1022.8
20191019102242 0 342 1.6 14.5 0.00 0.00 0.00 52 1022.8
20191019102143 0 344 3.2 14.5 0.00 0.00 0.00 52 1022.7
20191019102039 0 276 1.6 14.5 0.00 0.00 0.00 52 1022.7
20191019101940 0 295 3.2 14.5 0.00 0.00 0.00 52 1022.7
20191019101836 0 342 4.8 14.5 0.00 0.00 0.00 52 1022.7
20191019101737 0 345 0.0 14.5 0.00 0.00 0.00 52 1022.7
20191019101637 0 37 3.2 14.5 0.00 0.00 0.00 51 1022.7
20191019101538 0 238 4.8 14.5 0.00 0.00 0.00 51 1022.7
20191019101434 0 23 6.4 14.5 0.00 0.00 0.00 51 1022.5
20191019101335 0 257 8.0 12.9 0.00 0.00 0.00 51 1022.7
20191019101231 0 5 8.0 12.9 0.00 0.00 0.00 51 1022.7
20191019101132 0 23 8.0 11.3 0.00 0.00 0.00 51 1022.6
20191019101032 0 342 6.4 9.7 0.00 0.00 0.00 51 1022.6
20191019100933 0 17 6.4 9.7 0.00 0.00 0.00 51 1022.6
20191019100828 0 30 3.2 9.7 0.00 0.00 0.00 51 1022.5
20191019100732 0 360 4.8 9.7 0.00 0.00 0.00 52 1022.5
20191019100628 0 277 4.8 9.7 0.00 0.00 0.00 52 1022.6
20191019100528 0 259 6.4 9.7 0.00 0.00 0.00 52 1022.6
20191019100427 0 233 8.0 9.7 0.00 0.00 0.00 51 1022.5
20191019100332 0 217 8.0 9.7 0.00 0.00 0.00 51 1022.4
20191019100228 0 208 8.0 9.7 0.00 0.00 0.00 51 1022.5
20191019100133 0 215 8.0 8.0 0.00 0.00 0.00 50 1022.5
20191019100028 0 225 6.4 8.0 0.00 0.00 0.00 50 1022.5
20191019095928 0 238 6.4 8.0 0.00 0.00 0.00 50 1022.6
20191019095827 0 220 3.2 4.8 0.00 0.00 0.00 50 1022.6
20191019095732 0 220 3.2 9.7 0.00 0.00 0.00 50 1022.4
20191019095628 0 300 1.6 9.7 0.00 0.00 0.00 49 1022.4
20191019095532 0 300 0.0 9.7 0.00 0.00 0.00 49 1022.5
20191019095428 0 300 0.0 11.3 0.00 0.00 0.00 50 1022.6
20191019095329 0 300 1.6 11.3 0.00 0.00 0.00 50 1022.6
20191019095245 0 300 0.0 11.3 0.00 0.00 0.00 50 1022.6
20191019095126 0 300 0.0 11.3 0.00 0.00 0.00 50 1022.6
20191019095026 0 300 0.0 11.3 0.00 0.00 0.00 50 1022.5
20191019094926 0 300 6.4 11.3 0.00 0.00 0.00 50 1022.6
20191019094845 0 263 8.0 11.3 0.00 0.00 0.00 50 1022.9
20191019094726 0 273 4.8 11.3 0.00 0.00 0.00 50 1022.8
20191019094642 0 259 6.4 11.3 0.00 0.00 0.00 50 1022.7
20191019094543 0 226 6.4 11.3 0.00 0.00 0.00 50 1022.6
20191019094439 0 222 4.8 11.3 0.00 0.00 0.00 49 1022.6
20191019094323 0 257 3.2 11.3 0.00 0.00 0.00 49 1022.7
20191019094242 0 259 3.2 14.5 0.00 0.00 0.00 49 1022.8
20191019094142 0 277 3.2 14.5 0.00 0.00 0.00 49 1022.7
20191019094041 0 294 3.2 14.5 0.00 0.00 0.00 49 1022.7
20191019093941 0 273 3.2 14.5 0.00 0.00 0.00 49 1022.6
20191019093839 0 275 4.8 14.5 0.00 0.00 0.00 49 1022.7
20191019093727 0 268 8.0 14.5 0.00 0.00 0.00 49 1022.8
20191019093643 0 240 8.0 14.5 0.00 0.00 0.00 49 1022.8
20191019093541 0 237 9.7 14.5 0.00 0.00 0.00 49 1022.8
20191019093441 0 229 11.3 14.5 0.00 0.00 0.00 49 1022.7
20191019093342 0 224 11.3 16.1 0.00 0.00 0.00 48 1022.6
20191019093238 0 222 9.7 16.1 0.00 0.00 0.00 48 1022.7
20191019093140 0 227 9.7 17.7 0.00 0.00 0.00 48 1022.7
20191019093039 0 238 9.7 17.7 0.00 0.00 0.00 48 1022.7
20191019092940 0 240 8.0 17.7 0.00 0.00 0.00 47 1022.7
20191019092836 1 217 6.4 17.7 0.00 0.00 0.00 47 1022.6
20191019092737 1 236 8.0 17.7 0.00 0.00 0.00 47 1022.7
20191019092633 1 230 11.3 17.7 0.00 0.00 0.00 46 1022.7
20191019092534 1 230 12.9 17.7 0.00 0.00 0.00 46 1022.8
20191019092437 1 218 14.5 19.3 0.00 0.00 0.00 45 1022.8
20191019092338 1 221 14.5 19.3 0.00 0.00 0.00 45 1022.8
20191019092234 2 212 11.3 19.3 0.00 0.00 0.00 44 1022.7
20191019092138 2 229 9.7 19.3 0.00 0.00 0.00 44 1022.7
20191019092037 2 196 8.0 19.3 0.00 0.00 0.00 45 1022.7
20191019091938 2 182 8.0 19.3 0.00 0.00 0.00 45 1022.5
20191019091834 1 169 9.7 19.3 0.00 0.00 0.00 45 1023.3
20191019091739 1 172 16.1 19.3 0.00 0.00 0.00 46 1023.4
20191019091635 1 191 16.1 19.3 0.00 0.00 0.00 44 1023.4
20191019091536 1 195 12.9 16.1 0.00 0.00 0.00 44 1023.4
20191019091432 1 217 14.5 16.1 0.00 0.00 0.00 44 1023.5
20191019091333 1 229 9.7 14.5 0.00 0.00 0.00 44 1023.5
20191019091229 1 202 6.4 11.3 0.00 0.00 0.00 44 1023.3
20191019091134 1 180 6.4 11.3 0.00 0.00 0.00 44 1023.3
20191019091030 1 179 6.4 11.3 0.00 0.00 0.00 44 1023.3
20191019090930 1 180 6.4 11.3 0.00 0.00 0.00 45 1023.2
20191019090829 1 180 4.8 11.3 0.00 0.00 0.00 45 1023.2
20191019090730 1 152 3.2 11.3 0.00 0.00 0.00 45 1023.3
20191019090626 1 148 1.6 11.3 0.00 0.00 0.00 45 1023.2
20191019090527 1 141 4.8 11.3 0.00 0.00 0.00 45 1023.2
20191019090427 1 141 9.7 11.3 0.00 0.00 0.00 45 1023.0
20191019090327 1 143 9.7 11.3 0.00 0.00 0.00 45 1023.0
20191019090225 1 167 6.4 9.7 0.00 0.00 0.00 44 1023.2
20191019090130 1 168 4.8 9.7 0.00 0.00 0.00 44 1023.4
20191019090043 1 167 4.8 9.7 0.00 0.00 0.00 44 1023.4
20191019085944 1 165 3.2 9.7 0.00 0.00 0.00 44 1023.3
20191019085840 1 148 3.2 9.7 0.00 0.00 0.00 44 1023.1
20191019085745 1 148 1.6 9.7 0.00 0.00 0.00 44 1023.2
20191019085641 2 148 4.8 9.7 0.00 0.00 0.00 43 1023.1
20191019085542 2 148 8.0 9.7 0.00 0.00 0.00 42 1023.1
20191019085438 2 156 8.0 9.7 0.00 0.00 0.00 42 1023.2
20191019085339 2 183 6.4 8.0 0.00 0.00 0.00 42 1023.3
20191019085235 2 188 6.4 8.0 0.00 0.00 0.00 42 1023.2
20191019085140 2 192 8.0 8.0 0.00 0.00 0.00 42 1023.3
20191019085036 2 199 6.4 8.0 0.00 0.00 0.00 42 1023.2
20191019084937 2 215 8.0 8.0 0.00 0.00 0.00 42 1023.4
20191019084831 2 215 6.4 8.0 0.00 0.00 0.00 42 1023.4
20191019084732 2 216 6.4 8.0 0.00 0.00 0.00 42 1023.3
20191019084628 2 217 6.4 8.0 0.00 0.00 0.00 41 1023.3
20191019084529 2 217 8.0 8.0 0.00 0.00 0.00 42 1023.2
20191019084429 2 218 6.4 6.4 0.00 0.00 0.00 42 1023.2
20191019084329 2 218 3.2 4.8 0.00 0.00 0.00 42 1023.2
20191019084228 2 219 3.2 4.8 0.00 0.00 0.00 42 1023.3
20191019084129 2 218 3.2 4.8 0.00 0.00 0.00 42 1023.3
20191019084045 2 219 3.2 4.8 0.00 0.00 0.00 42 1023.3
20191019083926 2 219 3.2 6.4 0.00 0.00 0.00 42 1023.3
20191019083826 2 218 1.6 8.0 0.00 0.00 0.00 43 1023.3
20191019083725 2 218 3.2 8.0 0.00 0.00 0.00 42 1023.4
20191019083645 2 219 3.2 8.0 0.00 0.00 0.00 42 1023.3
20191019083525 2 218 3.2 8.0 0.00 0.00 0.00 42 1023.3
20191019083444 2 218 4.8 8.0 0.00 0.00 0.00 43 1023.4
20191019083345 2 218 4.8 8.0 0.00 0.00 0.00 43 1023.4
20191019083241 2 219 4.8 8.0 0.00 0.00 0.00 43 1023.3
20191019083127 2 219 4.8 8.0 0.00 0.00 0.00 42 1023.3
20191019083042 2 219 6.4 8.0 0.00 0.00 0.00 43 1023.3
20191019082942 2 219 6.4 8.0 0.00 0.00 0.00 43 1023.2
20191019082841 2 219 6.4 8.0 0.00 0.00 0.00 42 1023.2
20191019082740 2 219 6.4 8.0 0.00 0.00 0.00 43 1023.2
20191019082639 1 219 4.8 6.4 0.00 0.00 0.00 43 1023.2
20191019082526 1 219 4.8 6.4 0.00 0.00 0.00 43 1023.2
20191019082445 1 219 3.2 6.4 0.00 0.00 0.00 43 1023.2
20191019082326 1 219 4.8 8.0 0.00 0.00 0.00 44 1023.2
20191019082242 1 219 4.8 8.0 0.00 0.00 0.00 44 1023.2
20191019082142 1 219 6.4 8.0 0.00 0.00 0.00 44 1023.3
20191019082041 1 219 6.4 8.0 0.00 0.00 0.00 44 1023.2
20191019081942 1 219 6.4 8.0 0.00 0.00 0.00 44 1023.2
20191019081841 1 219 4.8 8.0 0.00 0.00 0.00 44 1023.2
20191019081724 1 219 4.8 8.0 0.00 0.00 0.00 44 1023.1
20191019081644 1 219 4.8 8.0 0.00 0.00 0.00 44 1023.2
20191019081545 1 219 6.4 8.0 0.00 0.00 0.00 44 1023.2
20191019081441 1 224 6.4 8.0 0.00 0.00 0.00 44 1023.2
20191019081342 1 227 6.4 8.0 0.00 0.00 0.00 44 1023.2
20191019081238 1 227 4.8 8.0 0.00 0.00 0.00 44 1023.1
20191019081125 1 227 6.4 8.0 0.00 0.00 0.00 45 1023.1
20191019081044 1 227 8.0 8.0 0.00 0.00 0.00 44 1023.2
20191019080924 1 227 6.4 6.4 0.00 0.00 0.00 44 1023.1
20191019080843 1 227 6.4 6.4 0.00 0.00 0.00 44 1023.2
20191019080744 1 227 4.8 6.4 0.00 0.00 0.00 44 1023.2
20191019080640 1 227 4.8 6.4 0.00 0.00 0.00 44 1023.2
20191019080524 1 227 4.8 6.4 0.00 0.00 0.00 44 1023.1
20191019080444 1 227 3.2 4.8 0.00 0.00 0.00 44 1023.1
20191019080324 1 227 1.6 6.4 0.00 0.00 0.00 44 1023.1
20191019080243 1 227 1.6 8.0 0.00 0.00 0.00 44 1023.0
20191019080145 1 227 1.6 8.0 0.00 0.00 0.00 44 1023.1
20191019080040 1 227 1.6 8.0 0.00 0.00 0.00 45 1023.1
20191019075941 1 227 1.6 8.0 0.00 0.00 0.00 45 1023.1
20191019075841 1 227 1.6 8.0 0.00 0.00 0.00 45 1023.1
20191019075740 1 227 1.6 8.0 0.00 0.00 0.00 45 1023.1
20191019075640 1 227 1.6 8.0 0.00 0.00 0.00 45 1023.1
20191019075539 1 227 3.2 8.0 0.00 0.00 0.00 45 1023.1
20191019075439 1 227 6.4 8.0 0.00 0.00 0.00 45 1023.1
20191019075339 1 231 6.4 8.0 0.00 0.00 0.00 45 1023.1
20191019075242 1 233 4.8 8.0 0.00 0.00 0.00 44 1023.2
20191019075143 1 235 3.2 6.4 0.00 0.00 0.00 44 1023.1
20191019075040 1 234 3.2 6.4 0.00 0.00 0.00 44 1023.1
20191019074940 1 234 3.2 6.4 0.00 0.00 0.00 44 1023.1
20191019074839 1 235 4.8 6.4 0.00 0.00 0.00 44 1023.1
20191019074739 1 263 4.8 8.0 0.00 0.00 0.00 44 1023.1
20191019074638 1 270 4.8 8.0 0.00 0.00 0.00 43 1023.2
20191019074543 1 272 4.8 8.0 0.00 0.00 0.00 43 1023.2
20191019074440 1 272 4.8 8.0 0.00 0.00 0.00 44 1023.1
20191019074339 1 272 4.8 8.0 0.00 0.00 0.00 44 1023.2
20191019074239 1 272 4.8 8.0 0.00 0.00 0.00 44 1023.2
20191019074139 1 265 6.4 8.0 0.00 0.00 0.00 44 1023.2
20191019074038 1 259 4.8 8.0 0.00 0.00 0.00 44 1023.2
20191019073943 1 258 6.4 8.0 0.00 0.00 0.00 44 1023.2
20191019073839 1 257 6.4 9.7 0.00 0.00 0.00 44 1023.2
20191019073739 1 259 6.4 11.3 0.00 0.00 0.00 44 1023.2
20191019073638 1 265 4.8 11.3 0.00 0.00 0.00 44 1023.1
20191019073541 1 284 4.8 11.3 0.00 0.00 0.00 44 1023.2
20191019073439 1 284 4.8 11.3 0.00 0.00 0.00 44 1023.1
20191019073327 1 275 4.8 11.3 0.00 0.00 0.00 44 1023.1
20191019073224 1 261 8.0 11.3 0.00 0.00 0.00 44 1023.1
20191019073130 1 256 8.0 11.3 0.00 0.00 0.00 44 1023.1
20191019073045 1 246 8.0 11.3 0.00 0.00 0.00 44 1023.1
20191019072926 1 237 8.0 11.3 0.00 0.00 0.00 44 1023.1
20191019072842 1 230 8.0 9.7 0.00 0.00 0.00 43 1023.1
20191019072743 1 232 8.0 8.0 0.00 0.00 0.00 43 1023.1
20191019072643 1 237 6.4 8.0 0.00 0.00 0.00 42 1023.1
20191019072523 1 217 6.4 8.0 0.00 0.00 0.00 42 1023.0
20191019072442 2 217 6.4 8.0 0.00 0.00 0.00 42 1023.0
20191019072341 2 223 6.4 8.0 0.00 0.00 0.00 42 1023.0
20191019072241 2 223 4.8 9.7 0.00 0.00 0.00 42 1023.0
20191019072142 2 223 6.4 11.3 0.00 0.00 0.00 41 1023.0
20191019072039 2 225 4.8 11.3 0.00 0.00 0.00 41 1023.0
20191019071923 2 238 4.8 11.3 0.00 0.00 0.00 41 1023.0
20191019071842 2 244 3.2 14.5 0.00 0.00 0.00 41 1023.0
20191019071742 2 285 3.2 14.5 0.00 0.00 0.00 40 1023.0
20191019071641 2 286 4.8 14.5 0.00 0.00 0.00 40 1023.0
20191019071541 2 307 4.8 14.5 0.00 0.00 0.00 40 1023.0
20191019071438 2 314 8.0 14.5 0.00 0.00 0.00 41 1022.9
20191019071325 2 329 6.4 14.5 0.00 0.00 0.00 41 1023.0
20191019071245 2 332 9.7 14.5 0.00 0.00 0.00 40 1022.9
20191019071126 2 326 9.7 16.1 0.00 0.00 0.00 40 1022.9
20191019071042 2 337 9.7 16.1 0.00 0.00 0.00 40 1022.9
20191019070943 2 338 9.7 16.1 0.00 0.00 0.00 40 1022.9
20191019070839 2 319 11.3 16.1 0.00 0.00 0.00 40 1023.0
20191019070740 2 326 9.7 16.1 0.00 0.00 0.00 40 1023.0
20191019070640 2 329 9.7 16.1 0.00 0.00 0.00 40 1023.0
20191019070541 2 331 8.0 16.1 0.00 0.00 0.00 40 1023.0
20191019070437 2 309 11.3 16.1 0.00 0.00 0.00 40 1023.0
20191019070338 2 313 12.9 16.1 0.00 0.00 0.00 40 1022.9
20191019070237 2 330 11.3 16.1 0.00 0.00 0.00 40 1022.9
20191019070139 2 337 12.9 16.1 0.00 0.00 0.00 40 1022.9
20191019070037 2 328 12.9 16.1 0.00 0.00 0.00 40 1023.0
20191019065941 2 334 11.3 16.1 0.00 0.00 0.00 40 1022.9
20191019065841 2 330 9.7 16.1 0.00 0.00 0.00 41 1022.9
20191019065740 2 319 9.7 16.1 0.00 0.00 0.00 41 1022.9
20191019065640 2 327 9.7 16.1 0.00 0.00 0.00 41 1022.9
20191019065539 2 333 9.7 16.1 0.00 0.00 0.00 41 1023.0
20191019065437 2 339 9.7 16.1 0.00 0.00 0.00 41 1022.9
20191019065326 2 342 12.9 16.1 0.00 0.00 0.00 41 1022.9
20191019065242 2 330 9.7 16.1 0.00 0.00 0.00 41 1022.9
20191019065143 2 325 11.3 16.1 0.00 0.00 0.00 41 1022.9
20191019065039 2 330 9.7 16.1 0.00 0.00 0.00 41 1022.9
20191019064940 2 304 9.7 16.1 0.00 0.00 0.00 41 1022.9
20191019064836 2 314 9.7 16.1 0.00 0.00 0.00 41 1022.9
20191019064741 2 329 11.3 16.1 0.00 0.00 0.00 41 1022.9
20191019064637 2 327 11.3 14.5 0.00 0.00 0.00 41 1022.9
20191019064538 2 321 11.3 14.5 0.00 0.00 0.00 41 1022.9
20191019064434 2 314 9.7 14.5 0.00 0.00 0.00 41 1022.9
20191019064335 2 315 8.0 14.5 0.00 0.00 0.00 41 1022.9
20191019064231 2 327 8.0 14.5 0.00 0.00 0.00 41 1022.9
20191019064132 2 330 8.0 14.5 0.00 0.00 0.00 41 1022.9
20191019064032 2 326 6.4 14.5 0.00 0.00 0.00 41 1022.8
20191019063933 2 342 6.4 14.5 0.00 0.00 0.00 41 1022.8
20191019063829 2 360 8.0 14.5 0.00 0.00 0.00 41 1022.8
20191019063730 2 341 6.4 20.9 0.00 0.00 0.00 41 1022.8
20191019063626 2 331 6.4 20.9 0.00 0.00 0.00 41 1022.8
20191019063527 2 360 3.2 20.9 0.00 0.00 0.00 41 1022.8
20191019063427 2 307 8.0 20.9 0.00 0.00 0.00 41 1022.8
20191019063326 2 318 8.0 20.9 0.00 0.00 0.00 41 1022.8
20191019063226 2 323 6.4 20.9 0.00 0.00 0.00 41 1022.8
20191019063128 2 321 9.7 20.9 0.00 0.00 0.00 41 1022.8
20191019063043 2 325 8.0 20.9 0.00 0.00 0.00 41 1022.8
20191019062944 2 312 9.7 20.9 0.00 0.00 0.00 40 1022.7
20191019062839 2 323 11.3 20.9 0.00 0.00 0.00 40 1022.7
20191019062726 2 343 9.7 20.9 0.00 0.00 0.00 40 1022.8
20191019062626 2 323 12.9 20.9 0.00 0.00 0.00 40 1022.8
20191019062526 3 325 16.1 20.9 0.00 0.00 0.00 40 1022.8
20191019062445 3 309 12.9 20.9 0.00 0.00 0.00 40 1023.6
20191019062326 3 344 11.3 20.9 0.00 0.00 0.00 40 1023.6
20191019062242 3 360 16.1 24.1 0.00 0.00 0.00 40 1023.5
20191019062126 3 325 12.9 24.1 0.00 0.00 0.00 40 1023.5
20191019062041 3 318 14.5 24.1 0.00 0.00 0.00 40 1023.5
20191019061925 3 316 11.3 24.1 0.00 0.00 0.00 40 1023.5
20191019061845 3 330 8.0 24.1 0.00 0.00 0.00 40 1023.5
20191019061726 3 329 11.3 24.1 0.00 0.00 0.00 40 1023.6
20191019061642 3 334 14.5 27.4 0.00 0.00 0.00 40 1023.5
20191019061543 3 309 16.1 27.4 0.00 0.00 0.00 40 1023.5
20191019061443 3 334 14.5 27.4 0.00 0.00 0.00 39 1023.5
20191019061344 3 314 19.3 27.4 0.00 0.00 0.00 39 1023.5
20191019061240 3 334 17.7 27.4 0.00 0.00 0.00 39 1023.4
20191019061141 3 313 14.5 27.4 0.00 0.00 0.00 39 1023.4
20191019061037 3 316 12.9 27.4 0.00 0.00 0.00 39 1023.4
20191019060938 3 335 19.3 27.4 0.00 0.00 0.00 39 1023.4
20191019060834 3 302 20.9 27.4 0.00 0.00 0.00 39 1023.4
20191019060739 3 319 16.1 22.5 0.00 0.00 0.00 39 1023.4
20191019060635 3 318 12.9 25.7 0.00 0.00 0.00 39 1023.4
20191019060548 3 319 9.7 25.7 0.00 0.00 0.00 39 1023.4
20191019060430 3 344 17.7 25.7 0.00 0.00 0.00 39 1023.4
20191019060331 3 315 16.1 25.7 0.00 0.00 0.00 39 1023.4
20191019060227 3 321 17.7 25.7 0.00 0.00 0.00 39 1023.3
20191019060133 3 313 19.3 25.7 0.00 0.00 0.00 39 1023.3
20191019060029 3 309 17.7 25.7 0.00 0.00 0.00 39 1023.4
20191019055927 3 319 17.7 25.7 0.00 0.00 0.00 39 1023.3
20191019055827 3 294 17.7 25.7 0.00 0.00 0.00 40 1023.4
20191019055728 3 321 11.3 24.1 0.00 0.00 0.00 40 1023.3
20191019055644 3 320 14.5 25.7 0.00 0.00 0.00 40 1023.3
20191019055545 3 288 19.3 25.7 0.00 0.00 0.00 40 1023.3
20191019055445 3 307 17.7 29.0 0.00 0.00 0.00 40 1023.3
20191019055324 3 287 17.7 29.0 0.00 0.00 0.00 40 1023.3
20191019055244 3 288 14.5 29.0 0.00 0.00 0.00 40 1023.3
20191019055145 3 301 14.5 29.0 0.00 0.00 0.00 40 1023.2
20191019055041 3 291 17.7 29.0 0.00 0.00 0.00 40 1023.2
20191019054942 3 306 20.9 29.0 0.00 0.00 0.00 40 1023.2
20191019054837 3 291 20.9 29.0 0.00 0.00 0.00 40 1023.2
20191019054724 3 329 16.1 29.0 0.00 0.00 0.00 40 1023.3
20191019054644 3 292 17.7 29.0 0.00 0.00 0.00 40 1023.3
20191019054523 3 289 17.7 27.4 0.00 0.00 0.00 40 1023.3
20191019054443 3 309 16.1 29.0 0.00 0.00 0.00 40 1023.3
20191019054344 3 309 19.3 29.0 0.00 0.00 0.00 40 1023.3
20191019054240 3 291 22.5 29.0 0.00 0.00 0.00 40 1023.3
20191019054124 3 281 16.1 29.0 0.00 0.00 0.00 40 1023.2
20191019054044 3 310 16.1 29.0 0.00 0.00 0.00 40 1023.3
20191019053945 3 285 20.9 29.0 0.00 0.00 0.00 40 1023.3
20191019053841 3 306 19.3 29.0 0.00 0.00 0.00 40 1023.3
20191019053742 3 302 20.9 29.0 0.00 0.00 0.00 40 1023.3
20191019053638 3 278 20.9 29.0 0.00 0.00 0.00 40 1023.3
20191019053526 3 286 17.7 25.7 0.00 0.00 0.00 40 1023.4
20191019053442 3 304 20.9 25.7 0.00 0.00 0.00 40 1023.3
20191019053343 3 323 19.3 25.7 0.00 0.00 0.00 39 1023.4
20191019053239 3 290 19.3 25.7 0.00 0.00 0.00 39 1023.3
20191019053140 3 334 19.3 25.7 0.00 0.00 0.00 39 1023.4
20191019053038 3 313 19.3 25.7 0.00 0.00 0.00 39 1023.4
20191019052939 3 310 19.3 25.7 0.00 0.00 0.00 39 1023.3
20191019052839 3 331 17.7 25.7 0.00 0.00 0.00 40 1023.4
20191019052740 3 304 12.9 24.1 0.00 0.00 0.00 39 1023.4
20191019052635 3 290 17.7 24.1 0.00 0.00 0.00 40 1023.3
20191019052537 3 322 14.5 24.1 0.00 0.00 0.00 40 1023.4
20191019052433 3 318 14.5 24.1 0.00 0.00 0.00 40 1023.3
20191019052334 3 309 14.5 24.1 0.00 0.00 0.00 40 1023.4
20191019052233 3 294 14.5 24.1 0.00 0.00 0.00 40 1023.3
20191019052138 3 305 17.7 24.1 0.00 0.00 0.00 40 1023.3
20191019052034 3 311 11.3 17.7 0.00 0.00 0.00 40 1023.3
20191019051935 3 300 12.9 17.7 0.00 0.00 0.00 40 1023.3
20191019051831 3 287 9.7 16.1 0.00 0.00 0.00 40 1023.2
20191019051732 3 337 6.4 16.1 0.00 0.00 0.00 40 1023.2
20191019051628 3 329 4.8 16.1 0.00 0.00 0.00 40 1023.1
20191019051533 3 318 6.4 16.1 0.00 0.00 0.00 40 1023.2
20191019051429 3 22 6.4 16.1 0.00 0.00 0.00 40 1023.2
20191019051328 3 333 6.4 16.1 0.00 0.00 0.00 40 1023.1
20191019051228 3 342 8.0 16.1 0.00 0.00 0.00 40 1023.1
20191019051129 3 330 11.3 16.1 0.00 0.00 0.00 40 1023.1
20191019051045 3 320 4.8 11.3 0.00 0.00 0.00 40 1023.1
20191019050926 3 335 6.4 11.3 0.00 0.00 0.00 40 1023.0
20191019050826 3 307 6.4 11.3 0.00 0.00 0.00 40 1023.0
20191019050725 3 13 3.2 14.5 0.00 0.00 0.00 40 1023.1
20191019050645 3 317 3.2 14.5 0.00 0.00 0.00 40 1023.0
20191019050524 3 340 3.2 14.5 0.00 0.00 0.00 40 1023.1
20191019050422 3 341 3.2 14.5 0.00 0.00 0.00 40 1023.1
20191019050345 3 338 4.8 14.5 0.00 0.00 0.00 40 1023.0
20191019050224 3 355 4.8 22.5 0.00 0.00 0.00 40 1023.1
20191019050130 3 321 4.8 22.5 0.00 0.00 0.00 40 1023.1
20191019050045 3 322 4.8 22.5 0.00 0.00 0.00 40 1023.0
20191019045926 3 202 8.0 22.5 0.00 0.00 0.00 40 1023.1
20191019045842 3 325 6.4 22.5 0.00 0.00 0.00 40 1023.1
20191019045740 3 326 6.4 22.5 0.00 0.00 0.00 40 1023.0
20191019045636 3 341 4.8 22.5 0.00 0.00 0.00 40 1023.0
20191019045542 3 337 6.4 22.5 0.00 0.00 0.00 40 1023.0
20191019045437 3 355 14.5 22.5 0.00 0.00 0.00 40 1023.0
20191019045341 3 312 16.1 22.5 0.00 0.00 0.00 41 1023.0
20191019045241 3 315 9.7 19.3 0.00 0.00 0.00 41 1023.0
20191019045142 3 319 9.7 19.3 0.00 0.00 0.00 41 1023.0
20191019045038 3 330 16.1 19.3 0.00 0.00 0.00 41 1022.9
20191019044939 3 287 11.3 19.3 0.00 0.00 0.00 41 1023.1
20191019044838 4 312 6.4 20.9 0.00 0.00 0.00 41 1023.0
20191019044738 4 327 6.4 20.9 0.00 0.00 0.00 41 1023.0
20191019044638 4 313 11.3 24.1 0.00 0.00 0.00 41 1023.0
20191019044537 4 317 11.3 24.1 0.00 0.00 0.00 41 1023.0
20191019044437 4 320 9.7 24.1 0.00 0.00 0.00 41 1023.0
20191019044338 4 304 8.0 24.1 0.00 0.00 0.00 41 1023.0
20191019044238 4 316 9.7 24.1 0.00 0.00 0.00 41 1022.9
20191019044139 4 45 4.8 24.1 0.00 0.00 0.00 41 1022.8
20191019044035 4 5 8.0 24.1 0.00 0.00 0.00 41 1022.7
20191019043936 4 360 14.5 24.1 0.00 0.00 0.00 41 1022.8
20191019043832 4 355 9.7 24.1 0.00 0.00 0.00 41 1022.7
20191019043733 4 360 6.4 24.1 0.00 0.00 0.00 41 1022.6
20191019043629 4 324 4.8 24.1 0.00 0.00 0.00 41 1022.6
20191019043534 4 30 6.4 29.0 0.00 0.00 0.00 41 1022.7
20191019043430 4 344 11.3 29.0 0.00 0.00 0.00 41 1022.7
20191019043331 4 11 4.8 29.0 0.00 0.00 0.00 41 1022.8
20191019043227 4 344 11.3 29.0 0.00 0.00 0.00 41 1022.8
20191019043133 4 360 4.8 29.0 0.00 0.00 0.00 41 1022.9
20191019043028 4 355 8.0 29.0 0.00 0.00 0.00 41 1022.9
20191019042933 4 306 14.5 29.0 0.00 0.00 0.00 41 1022.8
20191019042829 4 314 12.9 29.0 0.00 0.00 0.00 41 1022.8
20191019042733 4 333 14.5 29.0 0.00 0.00 0.00 41 1022.9
20191019042629 4 326 11.3 29.0 0.00 0.00 0.00 41 1022.8
20191019042528 4 319 14.5 25.7 0.00 0.00 0.00 41 1022.8
20191019042428 4 355 14.5 30.6 0.00 0.00 0.00 41 1022.9
20191019042329 4 315 9.7 30.6 0.00 0.00 0.00 41 1022.9
20191019042228 5 309 17.7 30.6 0.00 0.00 0.00 41 1022.9
20191019042133 5 296 14.5 30.6 0.00 0.00 0.00 41 1022.9
20191019042029 5 317 20.9 30.6 0.00 0.00 0.00 41 1022.8
20191019041928 5 313 19.3 30.6 0.00 0.00 0.00 41 1022.8
20191019041829 5 323 19.3 33.8 0.00 0.00 0.00 41 1022.8
20191019041730 5 328 17.7 33.8 0.00 0.00 0.00 41 1022.8
20191019041628 5 309 22.5 33.8 0.00 0.00 0.00 41 1022.8
20191019041533 5 304 20.9 33.8 0.00 0.00 0.00 41 1022.8
20191019041429 5 325 24.1 33.8 0.00 0.00 0.00 41 1022.5
20191019041328 5 323 22.5 33.8 0.00 0.00 0.00 41 1022.6
20191019041228 5 311 20.9 33.8 0.00 0.00 0.00 41 1022.6
20191019041127 5 292 20.9 33.8 0.00 0.00 0.00 41 1022.6
20191019041027 5 313 27.4 33.8 0.00 0.00 0.00 41 1022.5
20191019040932 5 308 27.4 33.8 0.00 0.00 0.00 41 1022.4
20191019040829 5 304 19.3 32.2 0.00 0.00 0.00 41 1022.3
20191019040729 5 315 24.1 32.2 0.00 0.00 0.00 41 1022.5
20191019040628 5 298 22.5 32.2 0.00 0.00 0.00 41 1022.5
20191019040529 5 298 24.1 32.2 0.00 0.00 0.00 41 1022.4
20191019040444 5 307 25.7 32.2 0.00 0.00 0.00 41 1022.4
20191019040330 5 302 24.1 32.2 0.00 0.00 0.00 41 1022.5
20191019040227 5 315 22.5 33.8 0.00 0.00 0.00 41 1022.4
20191019040133 5 294 25.7 35.4 0.00 0.00 0.00 42 1022.3
20191019040028 5 328 22.5 35.4 0.00 0.00 0.00 42 1022.4
20191019035927 5 307 22.5 35.4 0.00 0.00 0.00 41 1022.4
20191019035827 5 319 25.7 40.2 0.00 0.00 0.00 41 1022.3
20191019035726 5 308 20.9 40.2 0.00 0.00 0.00 41 1022.3
20191019035630 5 317 24.1 40.2 0.00 0.00 0.00 42 1022.2
20191019035531 5 311 25.7 40.2 0.00 0.00 0.00 42 1022.3
20191019035428 5 313 27.4 40.2 0.00 0.00 0.00 42 1022.3
20191019035329 5 319 32.2 40.2 0.00 0.00 0.00 42 1022.3
20191019035245 5 304 27.4 40.2 0.00 0.00 0.00 42 1022.2
20191019035126 5 300 25.7 40.2 0.00 0.00 0.00 42 1022.2
20191019035025 5 300 29.0 40.2 0.00 0.00 0.00 42 1022.2
20191019034927 5 300 30.6 37.0 0.00 0.00 0.00 42 1022.2
20191019034843 5 318 30.6 37.0 0.00 0.00 0.00 42 1022.2
20191019034741 5 329 30.6 37.0 0.00 0.00 0.00 42 1022.2
20191019034640 5 295 27.4 37.0 0.00 0.00 0.00 42 1022.2
20191019034540 5 315 29.0 37.0 0.00 0.00 0.00 41 1022.2
20191019034439 5 307 32.2 37.0 0.00 0.00 0.00 41 1022.1
20191019034326 5 331 19.3 37.0 0.00 0.00 0.00 41 1022.2
20191019034245 5 312 25.7 37.0 0.00 0.00 0.00 41 1022.1
20191019034125 5 325 27.4 33.8 0.00 0.00 0.00 41 1022.2
20191019034042 5 310 27.4 33.8 0.00 0.00 0.00 41 1022.2
20191019033943 5 338 22.5 33.8 0.00 0.00 0.00 41 1022.2
20191019033839 5 307 25.7 33.8 0.00 0.00 0.00 41 1022.2
20191019033722 5 315 22.5 33.8 0.00 0.00 0.00 41 1022.1
20191019033642 5 309 27.4 33.8 0.00 0.00 0.00 41 1022.1
20191019033541 5 297 29.0 33.8 0.00 0.00 0.00 41 1022.1
20191019033441 5 311 27.4 33.8 0.00 0.00 0.00 41 1022.2
20191019033340 5 302 24.1 29.0 0.00 0.00 0.00 41 1022.1
20191019033238 5 294 22.5 29.0 0.00 0.00 0.00 41 1022.0
20191019033142 5 311 20.9 27.4 0.00 0.00 0.00 41 1022.1
20191019033045 5 314 20.9 27.4 0.00 0.00 0.00 41 1022.0
20191019032925 5 327 22.5 27.4 0.00 0.00 0.00 41 1022.0
20191019032844 5 290 22.5 27.4 0.00 0.00 0.00 42 1022.0
20191019032744 5 311 22.5 27.4 0.00 0.00 0.00 41 1021.9
20191019032641 5 306 20.9 27.4 0.00 0.00 0.00 41 1021.9
20191019032542 5 296 17.7 24.1 0.00 0.00 0.00 41 1021.9
20191019032438 5 296 20.9 24.1 0.00 0.00 0.00 41 1021.9
20191019032341 5 298 19.3 24.1 0.00 0.00 0.00 41 1021.9
20191019032240 5 311 14.5 22.5 0.00 0.00 0.00 41 1021.9
20191019032140 5 279 12.9 25.7 0.00 0.00 0.00 41 1021.9
20191019032040 5 315 12.9 25.7 0.00 0.00 0.00 41 1021.8
20191019031939 5 295 12.9 27.4 0.00 0.00 0.00 41 1021.8
20191019031837 5 307 12.9 27.4 0.00 0.00 0.00 41 1021.8
20191019031724 5 313 14.5 27.4 0.00 0.00 0.00 41 1021.8
20191019031644 5 313 16.1 27.4 0.00 0.00 0.00 41 1021.8
20191019031523 5 327 19.3 27.4 0.00 0.00 0.00 40 1021.8
20191019031443 5 307 17.7 27.4 0.00 0.00 0.00 40 1021.8
20191019031323 5 315 20.9 29.0 0.00 0.00 0.00 41 1021.8
20191019031240 5 295 20.9 29.0 0.00 0.00 0.00 40 1021.8
20191019031129 5 304 20.9 30.6 0.00 0.00 0.00 40 1021.7
20191019031045 5 302 19.3 30.6 0.00 0.00 0.00 40 1021.7
20191019030943 5 300 22.5 30.6 0.00 0.00 0.00 40 1021.7
20191019030839 5 298 20.9 30.6 0.00 0.00 0.00 40 1021.7
20191019030740 5 311 20.9 30.6 0.00 0.00 0.00 40 1021.7
20191019030636 5 294 16.1 30.6 0.00 0.00 0.00 40 1021.6
20191019030537 5 291 19.3 30.6 0.00 0.00 0.00 40 1021.6
20191019030437 5 319 22.5 30.6 0.00 0.00 0.00 40 1021.5
20191019030338 5 299 22.5 30.6 0.00 0.00 0.00 40 1021.5
20191019030234 5 285 22.5 30.6 0.00 0.00 0.00 40 1021.5
20191019030136 5 292 22.5 33.8 0.00 0.00 0.00 40 1021.4
20191019030031 5 311 22.5 33.8 0.00 0.00 0.00 39 1021.5
20191019025932 5 304 24.1 33.8 0.00 0.00 0.00 40 1021.5
20191019025827 5 313 17.7 33.8 0.00 0.00 0.00 40 1021.4
20191019025733 5 332 25.7 33.8 0.00 0.00 0.00 40 1021.4
20191019025629 5 299 24.1 33.8 0.00 0.00 0.00 40 1021.4
20191019025528 5 298 22.5 33.8 0.00 0.00 0.00 39 1021.4
20191019025428 5 284 22.5 33.8 0.00 0.00 0.00 40 1021.4
20191019025329 5 307 25.7 33.8 0.00 0.00 0.00 40 1021.4
20191019025245 5 309 25.7 33.8 0.00 0.00 0.00 40 1021.4
20191019025130 5 296 25.7 33.8 0.00 0.00 0.00 39 1021.4
20191019025029 5 304 25.7 32.2 0.00 0.00 0.00 39 1021.4
20191019024928 5 284 22.5 32.2 0.00 0.00 0.00 39 1021.4
20191019024828 5 285 19.3 32.2 0.00 0.00 0.00 39 1021.3
20191019024729 5 321 25.7 32.2 0.00 0.00 0.00 39 1021.4
20191019024645 5 294 22.5 32.2 0.00 0.00 0.00 39 1021.3
20191019024526 5 278 20.9 32.2 0.00 0.00 0.00 39 1021.3
20191019024426 5 282 22.5 32.2 0.00 0.00 0.00 39 1021.2
20191019024325 5 311 25.7 32.2 0.00 0.00 0.00 39 1021.2
20191019024244 5 259 25.7 35.4 0.00 0.00 0.00 40 1021.1
20191019024126 5 286 17.7 35.4 0.00 0.00 0.00 39 1021.2
20191019024042 5 299 16.1 35.4 0.00 0.00 0.00 39 1021.2
20191019023943 5 279 20.9 35.4 0.00 0.00 0.00 39 1021.2
20191019023839 5 292 24.1 38.6 0.00 0.00 0.00 39 1021.0
20191019023722 5 297 19.3 38.6 0.00 0.00 0.00 39 1021.1
20191019023641 5 298 20.9 38.6 0.00 0.00 0.00 39 1020.9
20191019023541 6 277 24.1 38.6 0.00 0.00 0.00 39 1020.9
20191019023441 5 318 27.4 38.6 0.00 0.00 0.00 39 1020.9
20191019023342 5 309 27.4 38.6 0.00 0.00 0.00 39 1020.8
20191019023235 5 292 25.7 38.6 0.00 0.00 0.00 39 1020.8
20191019023140 5 279 25.7 40.2 0.00 0.00 0.00 39 1020.8
20191019023038 5 305 30.6 40.2 0.00 0.00 0.00 39 1020.7
20191019022939 5 273 27.4 40.2 0.00 0.00 0.00 39 1020.7
20191019022835 5 287 27.4 40.2 0.00 0.00 0.00 39 1020.7
20191019022736 5 284 29.0 40.2 0.00 0.00 0.00 39 1020.6
20191019022631 5 297 29.0 40.2 0.00 0.00 0.00 39 1020.6
20191019022532 5 276 32.2 40.2 0.00 0.00 0.00 39 1020.5
20191019022433 5 304 27.4 40.2 0.00 0.00 0.00 39 1020.4
20191019022334 5 301 30.6 40.2 0.00 0.00 0.00 39 1020.5
20191019022229 6 277 24.1 37.0 0.00 0.00 0.00 39 1020.5
20191019022131 6 296 25.7 37.0 0.00 0.00 0.00 39 1020.5
20191019022026 6 298 24.1 37.0 0.00 0.00 0.00 39 1020.5
20191019021928 6 273 29.0 37.0 0.00 0.00 0.00 39 1020.5
20191019021828 6 283 20.9 37.0 0.00 0.00 0.00 39 1020.6
20191019021727 6 297 25.7 37.0 0.00 0.00 0.00 39 1020.6
20191019021626 6 276 25.7 37.0 0.00 0.00 0.00 38 1020.5
20191019021526 6 296 25.7 37.0 0.00 0.00 0.00 38 1020.5
20191019021426 6 288 29.0 37.0 0.00 0.00 0.00 38 1020.5
20191019021325 6 290 24.1 37.0 0.00 0.00 0.00 38 1020.6
20191019021223 6 274 24.1 37.0 0.00 0.00 0.00 38 1020.6
20191019021132 6 303 30.6 37.0 0.00 0.00 0.00 38 1020.6
20191019021028 6 304 27.4 37.0 0.00 0.00 0.00 38 1020.6
20191019020929 6 299 22.5 37.0 0.00 0.00 0.00 38 1020.6
20191019020843 6 271 24.1 37.0 0.00 0.00 0.00 38 1020.6
20191019020744 6 279 27.4 37.0 0.00 0.00 0.00 38 1020.6
20191019020637 6 290 27.4 37.0 0.00 0.00 0.00 38 1020.7
20191019020526 6 279 27.4 35.4 0.00 0.00 0.00 38 1020.6
20191019020442 6 271 29.0 35.4 0.00 0.00 0.00 38 1020.6
20191019020343 6 288 24.1 35.4 0.00 0.00 0.00 38 1020.6
20191019020238 6 282 25.7 35.4 0.00 0.00 0.00 38 1020.5
20191019020144 6 288 27.4 35.4 0.00 0.00 0.00 38 1020.5
20191019020039 6 263 27.4 35.4 0.00 0.00 0.00 38 1020.5
20191019015940 6 299 25.7 35.4 0.00 0.00 0.00 38 1020.5
20191019015840 6 279 22.5 33.8 0.00 0.00 0.00 38 1021.3
20191019015740 6 273 22.5 33.8 0.00 0.00 0.00 38 1021.3
20191019015638 6 271 17.7 33.8 0.00 0.00 0.00 38 1021.4
20191019015540 6 278 22.5 33.8 0.00 0.00 0.00 38 1021.3
20191019015436 6 302 25.7 33.8 0.00 0.00 0.00 38 1021.2
20191019015337 6 279 22.5 29.0 0.00 0.00 0.00 38 1021.3
20191019015233 6 287 19.3 29.0 0.00 0.00 0.00 38 1021.3
20191019015137 6 282 22.5 29.0 0.00 0.00 0.00 38 1021.3
20191019015034 6 271 20.9 29.0 0.00 0.00 0.00 37 1021.3
20191019014935 6 291 20.9 29.0 0.00 0.00 0.00 37 1021.2
20191019014830 6 278 19.3 29.0 0.00 0.00 0.00 37 1021.2
20191019014732 6 274 16.1 29.0 0.00 0.00 0.00 37 1021.2
20191019014628 6 270 14.5 29.0 0.00 0.00 0.00 37 1021.1
20191019014533 6 309 11.3 29.0 0.00 0.00 0.00 37 1021.1
20191019014429 6 294 17.7 29.0 0.00 0.00 0.00 37 1021.1
20191019014328 6 265 20.9 29.0 0.00 0.00 0.00 37 1021.1
20191019014228 6 280 22.5 29.0 0.00 0.00 0.00 37 1021.1
20191019014127 6 289 24.1 29.0 0.00 0.00 0.00 37 1021.1
20191019014026 6 253 24.1 29.0 0.00 0.00 0.00 38 1021.1
20191019013927 6 268 17.7 27.4 0.00 0.00 0.00 38 1021.2
20191019013827 6 277 20.9 27.4 0.00 0.00 0.00 38 1021.1
20191019013728 6 269 19.3 27.4 0.00 0.00 0.00 38 1021.1
20191019013627 6 296 17.7 27.4 0.00 0.00 0.00 38 1021.1
20191019013527 6 259 20.9 27.4 0.00 0.00 0.00 38 1021.1
20191019013425 6 290 19.3 27.4 0.00 0.00 0.00 38 1021.0
20191019013330 6 305 22.5 27.4 0.00 0.00 0.00 38 1021.1
20191019013229 6 277 17.7 20.9 0.00 0.00 0.00 38 1021.1
20191019013131 6 302 14.5 22.5 0.00 0.00 0.00 37 1021.0
20191019013026 6 296 12.9 24.1 0.00 0.00 0.00 38 1021.1
20191019012927 6 281 14.5 24.1 0.00 0.00 0.00 37 1021.0
20191019012844 6 299 11.3 24.1 0.00 0.00 0.00 37 1021.1
20191019012745 6 260 9.7 24.1 0.00 0.00 0.00 37 1021.0
20191019012640 6 271 12.9 24.1 0.00 0.00 0.00 37 1021.0
20191019012525 6 315 11.3 24.1 0.00 0.00 0.00 37 1021.0
20191019012440 6 282 11.3 24.1 0.00 0.00 0.00 37 1021.0
20191019012324 6 298 14.5 24.1 0.00 0.00 0.00 36 1021.0
20191019012244 6 291 16.1 29.0 0.00 0.00 0.00 36 1021.0
20191019012123 6 286 16.1 29.0 0.00 0.00 0.00 36 1021.0
20191019012043 6 319 17.7 32.2 0.00 0.00 0.00 36 1020.9
20191019011928 6 292 17.7 32.2 0.00 0.00 0.00 36 1021.0
20191019011844 6 321 17.7 32.2 0.00 0.00 0.00 36 1021.0
20191019011726 6 319 17.7 32.2 0.00 0.00 0.00 36 1020.9
20191019011641 6 315 14.5 32.2 0.00 0.00 0.00 36 1020.9
20191019011543 6 307 17.7 32.2 0.00 0.00 0.00 36 1020.9
20191019011439 6 292 22.5 32.2 0.00 0.00 0.00 36 1020.9
20191019011338 6 304 25.7 32.2 0.00 0.00 0.00 36 1020.8
20191019011241 6 290 24.1 33.8 0.00 0.00 0.00 36 1020.7
20191019011141 6 304 22.5 33.8 0.00 0.00 0.00 36 1020.7
20191019011040 6 302 24.1 33.8 0.00 0.00 0.00 36 1020.7
20191019010941 6 304 24.1 33.8 0.00 0.00 0.00 36 1020.7
20191019010838 6 298 24.1 33.8 0.00 0.00 0.00 36 1020.7
20191019010740 6 281 27.4 33.8 0.00 0.00 0.00 36 1020.5
20191019010638 6 301 25.7 33.8 0.00 0.00 0.00 36 1020.5
20191019010544 6 291 27.4 33.8 0.00 0.00 0.00 36 1020.6
20191019010439 6 303 27.4 33.8 0.00 0.00 0.00 35 1020.5
20191019010340 6 300 27.4 33.8 0.00 0.00 0.00 35 1020.4
20191019010236 6 280 27.4 33.8 0.00 0.00 0.00 35 1020.4
20191019010139 6 292 30.6 33.8 0.00 0.00 0.00 35 1020.4
20191019010033 6 269 27.4 30.6 0.00 0.00 0.00 35 1020.4
20191019005939 6 280 27.4 38.6 0.00 0.00 0.00 35 1020.3
20191019005834 6 288 25.7 38.6 0.00 0.00 0.00 34 1020.3
20191019005735 6 290 25.7 38.6 0.00 0.00 0.00 34 1020.2
20191019005632 7 283 25.7 41.8 0.00 0.00 0.00 34 1020.3
20191019005532 7 279 25.7 41.8 0.00 0.00 0.00 34 1020.2
20191019005429 7 279 25.7 41.8 0.00 0.00 0.00 34 1020.3
20191019005329 7 283 25.7 41.8 0.00 0.00 0.00 34 1020.2
20191019005229 7 288 25.7 41.8 0.00 0.00 0.00 33 1020.2
20191019005129 7 303 27.4 41.8 0.00 0.00 0.00 33 1020.2
20191019005029 7 291 30.6 41.8 0.00 0.00 0.00 33 1020.2
20191019004930 7 295 27.4 46.7 0.00 0.00 0.00 33 1020.2
20191019004825 7 298 30.6 46.7 0.00 0.00 0.00 33 1020.1
20191019004726 7 283 30.6 46.7 0.00 0.00 0.00 33 1020.1
20191019004626 7 288 30.6 46.7 0.00 0.00 0.00 33 1020.1
20191019004526 7 275 32.2 46.7 0.00 0.00 0.00 33 1020.0
20191019004425 7 275 32.2 46.7 0.00 0.00 0.00 33 1020.1
20191019004326 7 279 32.2 46.7 0.00 0.00 0.00 33 1019.9
20191019004242 7 273 32.2 46.7 0.00 0.00 0.00 33 1019.9
20191019004144 7 287 37.0 46.7 0.00 0.00 0.00 33 1019.8
20191019004040 7 290 38.6 46.7 0.00 0.00 0.00 33 1019.7
20191019003923 7 290 29.0 43.5 0.00 0.00 0.00 32 1019.8
20191019003842 7 274 22.5 38.6 0.00 0.00 0.00 32 1019.8
20191019003722 7 287 24.1 33.8 0.00 0.00 0.00 32 1019.8
20191019003641 7 281 25.7 33.8 0.00 0.00 0.00 32 1019.8
20191019003541 7 271 25.7 33.8 0.00 0.00 0.00 32 1019.8
20191019003439 7 295 24.1 32.2 0.00 0.00 0.00 32 1019.7
20191019003326 7 301 25.7 32.2 0.00 0.00 0.00 32 1019.7
20191019003224 7 292 19.3 27.4 0.00 0.00 0.00 32 1019.7
20191019003130 7 291 17.7 27.4 0.00 0.00 0.00 32 1019.7
20191019003045 7 266 20.9 27.4 0.00 0.00 0.00 32 1019.8
20191019002924 7 286 20.9 27.4 0.00 0.00 0.00 32 1019.8
20191019002843 7 292 22.5 27.4 0.00 0.00 0.00 32 1019.8
20191019002745 7 306 20.9 27.4 0.00 0.00 0.00 32 1019.8
20191019002624 7 306 19.3 27.4 0.00 0.00 0.00 32 1019.7
20191019002528 7 314 19.3 27.4 0.00 0.00 0.00 32 1019.8
20191019002427 7 303 19.3 27.4 0.00 0.00 0.00 32 1019.8
20191019002328 7 302 19.3 27.4 0.00 0.00 0.00 32 1019.7
20191019002245 7 312 17.7 27.4 0.00 0.00 0.00 32 1019.7
20191019002125 7 285 19.3 27.4 0.00 0.00 0.00 32 1019.7
20191019002025 7 317 19.3 27.4 0.00 0.00 0.00 33 1019.7
20191019001925 7 288 19.3 27.4 0.00 0.00 0.00 32 1019.7
20191019001844 7 290 22.5 29.0 0.00 0.00 0.00 33 1019.7
20191019001724 8 309 20.9 29.0 0.00 0.00 0.00 33 1019.7
20191019001643 8 294 20.9 29.0 0.00 0.00 0.00 33 1019.6
20191019001544 8 299 17.7 29.0 0.00 0.00 0.00 32 1019.6
20191019001440 8 276 17.7 29.0 0.00 0.00 0.00 32 1019.6
20191019001325 8 278 19.3 29.0 0.00 0.00 0.00 32 1019.6
20191019001223 8 304 17.7 29.0 0.00 0.00 0.00 32 1019.6
20191019001127 8 317 19.3 29.0 0.00 0.00 0.00 32 1019.6
20191019001026 8 294 25.7 29.0 0.00 0.00 0.00 32 1019.5
20191019000927 8 285 20.9 25.7 0.00 0.00 0.00 32 1019.4
20191019000844 8 270 22.5 25.7 0.00 0.00 0.00 31 1019.4
20191019000728 8 337 20.9 24.1 0.00 0.00 0.00 31 1019.3
20191019000627 8 269 17.7 22.5 0.00 0.00 0.00 31 1019.3
20191019000528 8 261 14.5 19.3 0.00 0.00 0.00 31 1019.3
20191019000444 8 265 8.0 19.3 0.00 0.00 0.00 31 1019.2
20191019000325 8 253 12.9 22.5 0.00 0.00 0.00 31 1019.2
20191019000241 8 276 12.9 24.1 0.00 0.00 0.00 31 1019.2
20191019000144 8 318 12.9 24.1 0.00 0.00 0.00 31 1019.2
20191019000042 8 10 11.3 29.0 0.00 0.00 0.00 30 1020.0
20191018235943 8 291 9.7 29.0 0.00 0.00 0.00 30 1019.8
20191018235839 8 355 6.4 29.0 0.00 0.00 0.00 30 1019.9
20191018235740 8 288 4.8 29.0 0.00 0.00 0.00 30 1019.8
20191018235636 8 279 9.7 29.0 0.00 0.00 0.00 30 1019.8
20191018235537 8 284 14.5 29.0 0.00 0.00 0.00 30 1019.8
20191018235434 8 275 17.7 29.0 0.00 0.00 0.00 30 1019.8
20191018235338 8 275 16.1 29.0 0.00 0.00 0.00 30 1019.7
20191018235237 8 279 20.9 29.0 0.00 0.00 0.00 30 1019.6
20191018235137 9 279 20.9 29.0 0.00 0.00 0.00 30 1019.6
20191018235037 9 304 17.7 33.8 0.00 0.00 0.00 30 1019.6
20191018234938 9 267 19.3 33.8 0.00 0.00 0.00 30 1019.6
20191018234834 9 290 17.7 33.8 0.00 0.00 0.00 30 1019.5
20191018234741 9 292 19.3 33.8 0.00 0.00 0.00 30 1019.5
20191018234640 9 292 16.1 35.4 0.00 0.00 0.00 30 1019.5
20191018234540 9 276 17.7 35.4 0.00 0.00 0.00 30 1019.4
20191018234438 9 287 20.9 38.6 0.00 0.00 0.00 30 1019.4
20191018234342 9 304 24.1 43.5 0.00 0.00 0.00 30 1019.3
20191018234238 9 296 27.4 43.5 0.00 0.00 0.00 29 1019.2
20191018234139 9 275 25.7 43.5 0.00 0.00 0.00 29 1019.4
20191018234040 9 292 27.4 43.5 0.00 0.00 0.00 29 1019.5
20191018233941 9 279 29.0 43.5 0.00 0.00 0.00 29 1019.4
20191018233839 9 292 30.6 43.5 0.00 0.00 0.00 29 1019.2
20191018233739 9 286 27.4 43.5 0.00 0.00 0.00 29 1019.3
20191018233638 9 308 24.1 43.5 0.00 0.00 0.00 29 1019.2
20191018233540 9 280 33.8 43.5 0.00 0.00 0.00 29 1019.1
20191018233440 9 272 27.4 35.4 0.00 0.00 0.00 29 1019.2
20191018233340 9 296 25.7 35.4 0.00 0.00 0.00 29 1019.2
20191018233236 9 280 25.7 35.4 0.00 0.00 0.00 29 1019.2
20191018233138 10 294 27.4 35.4 0.00 0.00 0.00 29 1019.2
20191018233033 10 271 22.5 41.8 0.00 0.00 0.00 28 1019.2
20191018232934 10 281 22.5 45.1 0.00 0.00 0.00 28 1019.1
20191018232830 10 286 24.1 45.1 0.00 0.00 0.00 28 1019.1
20191018232735 10 296 27.4 45.1 0.00 0.00 0.00 27 1019.1
20191018232631 10 315 22.5 45.1 0.00 0.00 0.00 27 1019.1
20191018232532 10 309 24.1 45.1 0.00 0.00 0.00 26 1019.2
20191018232428 10 324 29.0 45.1 0.00 0.00 0.00 26 1019.1
20191018232329 10 292 30.6 46.7 0.00 0.00 0.00 26 1019.1
20191018232225 10 314 33.8 46.7 0.00 0.00 0.00 26 1019.1
20191018232131 10 294 33.8 46.7 0.00 0.00 0.00 26 1019.0
20191018232026 10 302 32.2 46.7 0.00 0.00 0.00 26 1019.2
20191018231927 10 311 33.8 46.7 0.00 0.00 0.00 26 1019.0
20191018231845 10 301 33.8 46.7 0.00 0.00 0.00 26 1019.1
20191018231725 10 293 35.4 46.7 0.00 0.00 0.00 26 1019.1
20191018231641 10 300 37.0 46.7 0.00 0.00 0.00 26 1019.0
20191018231542 10 310 37.0 46.7 0.00 0.00 0.00 26 1019.0
20191018231441 10 311 33.8 45.1 0.00 0.00 0.00 26 1018.9
20191018231325 10 339 33.8 45.1 0.00 0.00 0.00 26 1018.9
20191018231241 10 306 33.8 43.5 0.00 0.00 0.00 26 1018.9
20191018231142 10 308 32.2 43.5 0.00 0.00 0.00 27 1018.9
20191018231038 10 295 24.1 43.5 0.00 0.00 0.00 27 1019.0
20191018230939 10 290 27.4 43.5 0.00 0.00 0.00 27 1019.0
20191018230835 10 304 25.7 43.5 0.00 0.00 0.00 27 1018.9
20191018230739 10 306 30.6 43.5 0.00 0.00 0.00 27 1019.0
20191018230638 10 307 35.4 43.5 0.00 0.00 0.00 27 1018.9
20191018230538 10 301 35.4 43.5 0.00 0.00 0.00 28 1018.9
20191018230437 10 312 27.4 48.3 0.00 0.00 0.00 28 1018.9
20191018230338 10 317 27.4 48.3 0.00 0.00 0.00 28 1018.9
20191018230234 10 342 30.6 48.3 0.00 0.00 0.00 28 1018.8
20191018230140 10 318 33.8 48.3 0.00 0.00 0.00 28 1018.7
20191018230036 10 300 32.2 48.3 0.00 0.00 0.00 28 1018.6
20191018225936 10 303 30.6 48.3 0.00 0.00 0.00 28 1018.6
20191018225832 10 302 32.2 48.3 0.00 0.00 0.00 28 1018.5
20191018225733 10 313 27.4 48.3 0.00 0.00 0.00 28 1018.6
20191018225629 10 360 33.8 48.3 0.00 0.00 0.00 28 1018.5
20191018225530 10 307 24.1 46.7 0.00 0.00 0.00 28 1018.6
20191018225430 10 338 29.0 46.7 0.00 0.00 0.00 28 1018.6
20191018225330 10 322 29.0 48.3 0.00 0.00 0.00 28 1018.6
20191018225228 10 313 30.6 48.3 0.00 0.00 0.00 28 1018.6
20191018225132 10 325 33.8 49.9 0.00 0.00 0.00 28 1018.6
20191018225031 10 272 30.6 49.9 0.00 0.00 0.00 28 1018.6
20191018224931 10 309 25.7 49.9 0.00 0.00 0.00 28 1018.7
20191018224835 10 326 25.7 49.9 0.00 0.00 0.00 28 1018.7
20191018224736 10 307 30.6 49.9 0.00 0.00 0.00 28 1018.6
20191018224632 10 306 29.0 49.9 0.00 0.00 0.00 28 1018.6
20191018224533 10 330 38.6 49.9 0.00 0.00 0.00 28 1018.7
20191018224429 10 10 32.2 49.9 0.00 0.00 0.00 28 1018.5
20191018224330 10 325 37.0 49.9 0.00 0.00 0.00 28 1018.4
20191018224226 10 275 22.5 45.1 0.00 0.00 0.00 28 1018.4
20191018224130 10 151 30.6 45.1 0.00 0.00 0.00 27 1018.4
20191018224029 10 288 25.7 46.7 0.00 0.00 0.00 27 1018.3
20191018223929 10 317 30.6 46.7 0.00 0.00 0.00 27 1018.4
20191018223829 10 9 22.5 46.7 0.00 0.00 0.00 27 1018.4
20191018223725 10 309 22.5 46.7 0.00 0.00 0.00 27 1018.4
20191018223644 10 360 30.6 46.7 0.00 0.00 0.00 27 1018.4
20191018223544 10 341 33.8 46.7 0.00 0.00 0.00 27 1018.4
20191018223512 10 326 29.0 48.3 0.00 0.00 0.00 26 1018.4
20191018223227 11 344 33.8 48.3 0.00 0.00 0.00 27 1018.2
20191018223133 11 317 35.4 48.3 0.00 0.00 0.00 27 1018.3
20191018223027 11 329 24.1 48.3 0.00 0.00 0.00 27 1018.3
20191018222928 11 40 24.1 51.5 0.00 0.00 0.00 27 1018.3
20191018222844 11 323 22.5 51.5 0.00 0.00 0.00 27 1018.2
20191018222725 11 299 29.0 51.5 0.00 0.00 0.00 26 1018.3
20191018222624 11 314 35.4 51.5 0.00 0.00 0.00 26 1018.1
20191018222528 11 328 37.0 51.5 0.00 0.00 0.00 26 1018.1
20191018222445 11 336 30.6 51.5 0.00 0.00 0.00 26 1018.1
20191018222324 11 291 27.4 51.5 0.00 0.00 0.00 26 1018.2
20191018222243 11 300 32.2 51.5 0.00 0.00 0.00 26 1018.2
20191018222123 11 323 40.2 51.5 0.00 0.00 0.00 26 1018.2
20191018222041 11 334 29.0 49.9 0.00 0.00 0.00 26 1018.1
20191018221928 11 28 20.9 49.9 0.00 0.00 0.00 26 1018.0
20191018221827 11 342 25.7 49.9 0.00 0.00 0.00 26 1018.0
20191018221728 11 338 27.4 49.9 0.00 0.00 0.00 27 1018.2
20191018221644 11 317 29.0 49.9 0.00 0.00 0.00 27 1018.0
20191018221525 11 327 33.8 53.1 0.00 0.00 0.00 27 1018.0
20191018221441 11 332 33.8 54.7 0.00 0.00 0.00 27 1018.0
20191018221329 11 313 30.6 57.9 0.00 0.00 0.00 27 1017.9
20191018221225 11 338 24.1 57.9 0.00 0.00 0.00 27 1017.9
20191018221126 11 350 24.1 57.9 0.00 0.00 0.00 27 1017.9
20191018221039 11 340 25.7 57.9 0.00 0.00 0.00 27 1017.9
20191018220940 11 282 27.4 57.9 0.00 0.00 0.00 27 1018.1
20191018220836 11 319 19.3 57.9 0.00 0.00 0.00 26 1017.8
20191018220737 11 350 35.4 57.9 0.00 0.00 0.00 26 1017.8
20191018220638 11 355 41.8 57.9 0.00 0.00 0.00 27 1017.8
20191018220538 11 320 41.8 57.9 0.00 0.00 0.00 26 1017.7
20191018220437 11 316 38.6 51.5 0.00 0.00 0.00 26 1017.7
20191018220338 11 298 41.8 51.5 0.00 0.00 0.00 26 1017.8
20191018220234 11 294 37.0 51.5 0.00 0.00 0.00 26 1017.7
20191018220136 11 314 30.6 51.5 0.00 0.00 0.00 27 1017.7
20191018220031 11 327 25.7 51.5 0.00 0.00 0.00 27 1017.7
20191018215936 11 319 25.7 51.5 0.00 0.00 0.00 27 1017.7
20191018215832 11 277 14.5 51.5 0.00 0.00 0.00 27 1017.5
20191018215733 11 37 22.5 51.5 0.00 0.00 0.00 27 1017.6
20191018215629 11 350 32.2 51.5 0.00 0.00 0.00 27 1017.7
20191018215530 11 318 43.5 51.5 0.00 0.00 0.00 27 1017.6
20191018215426 11 299 33.8 51.5 0.00 0.00 0.00 27 1017.6
20191018215330 11 75 24.1 51.5 0.00 0.00 0.00 27 1017.6
20191018215229 11 346 12.9 51.5 0.00 0.00 0.00 27 1017.5
20191018215129 11 163 19.3 51.5 0.00 0.00 0.00 27 1017.5
20191018215028 11 276 37.0 51.5 0.00 0.00 0.00 27 1017.5
20191018214928 11 333 40.2 51.5 0.00 0.00 0.00 27 1017.5
20191018214827 11 305 32.2 46.7 0.00 0.00 0.00 27 1017.6
20191018214727 11 306 33.8 46.7 0.00 0.00 0.00 27 1017.5
20191018214630 11 319 33.8 45.1 0.00 0.00 0.00 27 1017.4
20191018214531 11 331 24.1 41.8 0.00 0.00 0.00 27 1017.5
20191018214427 11 132 14.5 45.1 0.00 0.00 0.00 27 1017.4
20191018214328 11 302 20.9 46.7 0.00 0.00 0.00 27 1017.5
20191018214244 11 306 12.9 46.7 0.00 0.00 0.00 27 1017.5
20191018214125 11 269 32.2 46.7 0.00 0.00 0.00 27 1017.5
20191018214026 11 326 29.0 46.7 0.00 0.00 0.00 28 1017.4
20191018213927 11 323 22.5 46.7 0.00 0.00 0.00 28 1017.4
20191018213844 11 222 24.1 46.7 0.00 0.00 0.00 28 1017.4
20191018213744 11 325 30.6 46.7 0.00 0.00 0.00 28 1017.4
20191018213640 11 329 29.0 46.7 0.00 0.00 0.00 27 1017.5
20191018213541 11 294 32.2 46.7 0.00 0.00 0.00 28 1017.3
20191018213437 11 152 16.1 43.5 0.00 0.00 0.00 28 1017.5
20191018213343 11 307 11.3 43.5 0.00 0.00 0.00 28 1017.4
20191018213236 11 360 14.5 43.5 0.00 0.00 0.00 28 1017.4
20191018213138 11 80 16.1 43.5 0.00 0.00 0.00 28 1017.3
20191018213033 11 339 20.9 43.5 0.00 0.00 0.00 28 1017.3
20191018212934 11 315 25.7 45.1 0.00 0.00 0.00 28 1017.2
20191018212830 11 268 19.3 45.1 0.00 0.00 0.00 28 1017.1
20191018212731 11 113 12.9 45.1 0.00 0.00 0.00 29 1017.1
20191018212631 11 298 14.5 45.1 0.00 0.00 0.00 29 1017.2
20191018212531 11 52 12.9 45.1 0.00 0.00 0.00 29 1017.2
20191018212430 11 310 16.1 45.1 0.00 0.00 0.00 29 1017.2
20191018212331 11 327 27.4 45.1 0.00 0.00 0.00 29 1017.2
20191018212226 11 36 22.5 45.1 0.00 0.00 0.00 29 1017.2
20191018212127 11 304 29.0 45.1 0.00 0.00 0.00 30 1017.1
20191018212027 11 285 25.7 43.5 0.00 0.00 0.00 30 1017.1
20191018211931 11 54 24.1 43.5 0.00 0.00 0.00 30 1017.0
20191018211830 11 329 22.5 43.5 0.00 0.00 0.00 30 1017.1
20191018211731 11 288 30.6 38.6 0.00 0.00 0.00 30 1017.0
20191018211627 11 327 25.7 37.0 0.00 0.00 0.00 29 1017.0
20191018211528 11 340 22.5 37.0 0.00 0.00 0.00 29 1017.1
20191018211444 11 271 24.1 37.0 0.00 0.00 0.00 29 1017.1
20191018211328 11 311 17.7 35.4 0.00 0.00 0.00 29 1017.1
20191018211227 11 308 20.9 38.6 0.00 0.00 0.00 29 1017.0
20191018211130 11 290 20.9 38.6 0.00 0.00 0.00 29 1017.8
20191018211029 11 277 20.9 38.6 0.00 0.00 0.00 29 1017.8
20191018210929 11 292 22.5 38.6 0.00 0.00 0.00 29 1017.8
20191018210827 11 265 24.1 38.6 0.00 0.00 0.00 29 1017.7
20191018210735 11 279 24.1 38.6 0.00 0.00 0.00 29 1017.7
20191018210631 11 303 24.1 38.6 0.00 0.00 0.00 29 1017.8
20191018210532 11 288 20.9 38.6 0.00 0.00 0.00 28 1017.6
20191018210428 11 261 32.2 40.2 0.00 0.00 0.00 28 1017.7
20191018210329 11 295 30.6 40.2 0.00 0.00 0.00 28 1017.6
20191018210224 11 290 27.4 40.2 0.00 0.00 0.00 28 1017.6
20191018210129 11 300 25.7 40.2 0.00 0.00 0.00 29 1017.6
20191018210028 11 292 29.0 40.2 0.00 0.00 0.00 28 1017.5
20191018205930 11 296 29.0 40.2 0.00 0.00 0.00 28 1017.5
20191018205826 11 257 17.7 40.2 0.00 0.00 0.00 28 1017.5
20191018205726 11 299 24.1 40.2 0.00 0.00 0.00 28 1017.5
20191018205642 11 316 24.1 40.2 0.00 0.00 0.00 29 1017.5
20191018205543 11 281 20.9 37.0 0.00 0.00 0.00 29 1017.6
20191018205439 11 333 29.0 37.0 0.00 0.00 0.00 29 1017.5
20191018205344 11 328 30.6 37.0 0.00 0.00 0.00 29 1017.6
20191018205239 11 288 29.0 37.0 0.00 0.00 0.00 29 1017.5
20191018205143 11 306 29.0 43.5 0.00 0.00 0.00 29 1017.5
20191018205039 11 303 25.7 43.5 0.00 0.00 0.00 29 1017.5
20191018204940 11 299 27.4 43.5 0.00 0.00 0.00 29 1017.5
20191018204836 11 271 27.4 43.5 0.00 0.00 0.00 29 1017.3
20191018204741 11 205 20.9 43.5 0.00 0.00 0.00 30 1017.4
20191018204638 11 152 25.7 43.5 0.00 0.00 0.00 29 1017.5
20191018204538 11 296 25.7 43.5 0.00 0.00 0.00 29 1017.4
20191018204434 11 119 27.4 43.5 0.00 0.00 0.00 28 1017.4
20191018204335 11 360 29.0 43.5 0.00 0.00 0.00 28 1017.4
20191018204231 11 306 38.6 43.5 0.00 0.00 0.00 28 1017.4
20191018204132 11 296 32.2 41.8 0.00 0.00 0.00 28 1017.4
20191018204032 11 306 33.8 40.2 0.00 0.00 0.00 28 1017.3
20191018203932 11 319 35.4 40.2 0.00 0.00 0.00 28 1017.3
20191018203831 11 313 29.0 41.8 0.00 0.00 0.00 28 1017.3
20191018203731 11 302 27.4 41.8 0.00 0.00 0.00 28 1017.3
20191018203629 11 309 27.4 41.8 0.00 0.00 0.00 28 1017.3
20191018203533 11 284 22.5 41.8 0.00 0.00 0.00 28 1017.3
20191018203436 11 297 27.4 41.8 0.00 0.00 0.00 28 1017.2
20191018203337 11 283 30.6 41.8 0.00 0.00 0.00 28 1017.4
20191018203234 11 288 27.4 41.8 0.00 0.00 0.00 27 1017.3
20191018203136 11 286 33.8 41.8 0.00 0.00 0.00 27 1017.2
20191018203031 11 284 33.8 41.8 0.00 0.00 0.00 28 1017.3
20191018202932 11 296 30.6 40.2 0.00 0.00 0.00 28 1017.5
20191018202845 11 271 27.4 40.2 0.00 0.00 0.00 28 1017.2
20191018202729 11 284 24.1 40.2 0.00 0.00 0.00 27 1017.2
20191018202628 11 273 24.1 40.2 0.00 0.00 0.00 28 1017.2
20191018202528 11 279 24.1 40.2 0.00 0.00 0.00 28 1017.1
20191018202427 11 271 37.0 40.2 0.00 0.00 0.00 27 1017.1
20191018202328 11 317 30.6 43.5 0.00 0.00 0.00 27 1016.9
20191018202244 11 278 30.6 43.5 0.00 0.00 0.00 27 1016.9
20191018202129 11 259 25.7 43.5 0.00 0.00 0.00 27 1017.0
20191018202045 11 285 25.7 43.5 0.00 0.00 0.00 26 1016.9
20191018201926 11 271 25.7 43.5 0.00 0.00 0.00 27 1016.9
20191018201842 11 267 29.0 43.5 0.00 0.00 0.00 27 1017.0
20191018201726 11 280 29.0 43.5 0.00 0.00 0.00 27 1016.8
20191018201642 11 294 30.6 43.5 0.00 0.00 0.00 27 1016.8
20191018201543 11 279 30.6 43.5 0.00 0.00 0.00 27 1016.8
20191018201443 11 290 29.0 43.5 0.00 0.00 0.00 27 1016.8
20191018201344 11 291 27.4 40.2 0.00 0.00 0.00 27 1016.7
20191018201240 11 262 30.6 40.2 0.00 0.00 0.00 27 1016.7
20191018201144 11 259 32.2 40.2 0.00 0.00 0.00 27 1016.8
20191018201040 11 279 29.0 40.2 0.00 0.00 0.00 27 1016.7
20191018200941 11 248 20.9 37.0 0.00 0.00 0.00 27 1016.7
20191018200837 11 309 20.9 37.0 0.00 0.00 0.00 27 1016.8
20191018200742 11 234 30.6 37.0 0.00 0.00 0.00 27 1016.7
20191018200638 11 292 20.9 38.6 0.00 0.00 0.00 27 1016.7
20191018200539 11 294 17.7 43.5 0.00 0.00 0.00 27 1016.7
20191018200435 11 252 22.5 43.5 0.00 0.00 0.00 27 1016.7
20191018200336 11 287 30.6 43.5 0.00 0.00 0.00 27 1016.6
20191018200232 11 294 27.4 43.5 0.00 0.00 0.00 28 1016.7
20191018200138 11 321 25.7 43.5 0.00 0.00 0.00 28 1016.7
20191018200033 11 313 29.0 43.5 0.00 0.00 0.00 28 1016.7
20191018195932 11 304 29.0 43.5 0.00 0.00 0.00 27 1016.8
20191018195832 11 290 30.6 43.5 0.00 0.00 0.00 27 1016.8
20191018195733 11 300 35.4 43.5 0.00 0.00 0.00 27 1016.6
20191018195629 11 296 27.4 41.8 0.00 0.00 0.00 27 1016.7
20191018195530 11 260 29.0 41.8 0.00 0.00 0.00 27 1016.7
20191018195430 11 267 27.4 41.8 0.00 0.00 0.00 27 1016.6
20191018195330 10 254 29.0 41.8 0.00 0.00 0.00 27 1016.6
20191018195229 10 271 27.4 41.8 0.00 0.00 0.00 28 1016.6
20191018195130 10 300 29.0 41.8 0.00 0.00 0.00 28 1016.6
20191018195027 10 277 19.3 41.8 0.00 0.00 0.00 28 1016.6
20191018194928 10 260 17.7 41.8 0.00 0.00 0.00 29 1016.6
20191018194828 10 294 25.7 41.8 0.00 0.00 0.00 28 1016.6
20191018194729 10 276 33.8 41.8 0.00 0.00 0.00 29 1016.6
20191018194645 10 302 33.8 41.8 0.00 0.00 0.00 29 1016.6
20191018194526 10 266 29.0 35.4 0.00 0.00 0.00 29 1016.6
20191018194442 10 299 25.7 35.4 0.00 0.00 0.00 29 1016.6
20191018194343 10 306 24.1 32.2 0.00 0.00 0.00 29 1016.6
20191018194239 10 306 24.1 32.2 0.00 0.00 0.00 29 1016.6
20191018194144 10 287 25.7 32.2 0.00 0.00 0.00 29 1016.6
20191018194040 10 279 24.1 32.2 0.00 0.00 0.00 29 1016.6
20191018193941 10 287 20.9 32.2 0.00 0.00 0.00 29 1016.6
20191018193837 10 272 17.7 32.2 0.00 0.00 0.00 30 1016.6
20191018193738 10 290 20.9 33.8 0.00 0.00 0.00 30 1016.6
20191018193634 10 288 20.9 33.8 0.00 0.00 0.00 30 1016.6
20191018193535 10 275 19.3 33.8 0.00 0.00 0.00 30 1016.6
20191018193434 10 296 24.1 33.8 0.00 0.00 0.00 30 1016.6
20191018193338 10 294 24.1 33.8 0.00 0.00 0.00 30 1016.7
20191018193234 10 306 24.1 33.8 0.00 0.00 0.00 29 1016.6
20191018193136 10 299 27.4 45.1 0.00 0.00 0.00 29 1016.6
20191018193031 10 281 24.1 45.1 0.00 0.00 0.00 30 1016.6
20191018192932 10 292 24.1 45.1 0.00 0.00 0.00 30 1016.5
20191018192832 10 281 25.7 45.1 0.00 0.00 0.00 30 1016.5
20191018192732 10 287 25.7 45.1 0.00 0.00 0.00 30 1016.6
20191018192631 10 282 25.7 45.1 0.00 0.00 0.00 30 1016.6
20191018192531 10 272 29.0 45.1 0.00 0.00 0.00 29 1016.6
20191018192430 10 299 29.0 45.1 0.00 0.00 0.00 30 1016.6
20191018192330 10 303 29.0 45.1 0.00 0.00 0.00 30 1016.6
20191018192229 10 294 30.6 45.1 0.00 0.00 0.00 30 1016.6
20191018192134 10 288 20.9 40.2 0.00 0.00 0.00 30 1016.6
20191018192031 10 305 19.3 40.2 0.00 0.00 0.00 31 1016.6
20191018191932 10 329 20.9 40.2 0.00 0.00 0.00 31 1016.7
20191018191829 10 278 25.7 40.2 0.00 0.00 0.00 31 1016.6
20191018191730 10 273 29.0 40.2 0.00 0.00 0.00 31 1016.6
20191018191646 10 294 25.7 40.2 0.00 0.00 0.00 31 1016.6
20191018191530 10 267 32.2 40.2 0.00 0.00 0.00 30 1016.6
20191018191426 10 307 33.8 40.2 0.00 0.00 0.00 30 1016.6
20191018191327 10 265 30.6 40.2 0.00 0.00 0.00 31 1016.7
20191018191243 10 240 27.4 40.2 0.00 0.00 0.00 31 1016.6
20191018191144 10 302 22.5 40.2 0.00 0.00 0.00 31 1016.6
20191018191040 10 306 29.0 40.2 0.00 0.00 0.00 31 1016.5
20191018190941 10 296 32.2 40.2 0.00 0.00 0.00 31 1016.5
20191018190841 10 277 29.0 38.6 0.00 0.00 0.00 31 1016.5
20191018190742 10 269 29.0 38.6 0.00 0.00 0.00 31 1016.5
20191018190638 10 284 27.4 38.6 0.00 0.00 0.00 31 1016.5
20191018190539 10 267 29.0 38.6 0.00 0.00 0.00 31 1016.5
20191018190435 10 299 27.4 45.1 0.00 0.00 0.00 31 1016.5
20191018190336 10 288 29.0 45.1 0.00 0.00 0.00 31 1016.6
20191018190232 10 293 22.5 45.1 0.00 0.00 0.00 32 1016.6
20191018190138 10 280 19.3 45.1 0.00 0.00 0.00 32 1016.6
20191018190033 10 283 25.7 45.1 0.00 0.00 0.00 31 1016.6
20191018185934 10 270 25.7 45.1 0.00 0.00 0.00 32 1016.6
20191018185830 10 271 24.1 45.1 0.00 0.00 0.00 32 1016.6
20191018185731 10 262 29.0 45.1 0.00 0.00 0.00 33 1016.6
20191018185627 10 296 32.2 45.1 0.00 0.00 0.00 33 1016.6
20191018185532 10 304 30.6 46.7 0.00 0.00 0.00 33 1016.6
20191018185428 10 254 19.3 48.3 0.00 0.00 0.00 34 1016.7
20191018185329 10 292 22.5 48.3 0.00 0.00 0.00 34 1016.7
20191018185245 10 287 27.4 48.3 0.00 0.00 0.00 34 1016.6
20191018185126 10 288 32.2 48.3 0.00 0.00 0.00 34 1016.5
20191018185042 10 291 29.0 48.3 0.00 0.00 0.00 34 1016.6
20191018184943 10 326 30.6 48.3 0.00 0.00 0.00 34 1016.6
20191018184843 10 306 33.8 48.3 0.00 0.00 0.00 34 1016.7
20191018184744 10 309 40.2 48.3 0.00 0.00 0.00 34 1016.7
20191018184640 10 313 38.6 48.3 0.00 0.00 0.00 34 1016.6
20191018184541 10 296 37.0 48.3 0.00 0.00 0.00 34 1016.6
20191018184437 10 327 35.4 48.3 0.00 0.00 0.00 34 1016.6
20191018184338 10 296 32.2 43.5 0.00 0.00 0.00 35 1016.6
20191018184234 10 310 33.8 43.5 0.00 0.00 0.00 36 1016.6
20191018184139 10 296 37.0 43.5 0.00 0.00 0.00 36 1016.6
20191018184035 10 295 30.6 38.6 0.00 0.00 0.00 37 1017.3
20191018183936 10 283 27.4 38.6 0.00 0.00 0.00 38 1017.2
20191018183832 10 279 16.1 24.1 0.00 0.00 0.00 38 1017.2
20191018183733 10 297 17.7 24.1 0.00 0.00 0.00 39 1017.2
20191018183629 10 300 17.7 25.7 0.00 0.00 0.00 38 1017.2
20191018183534 10 294 19.3 27.4 0.00 0.00 0.00 39 1017.2
20191018183430 10 340 19.3 27.4 0.00 0.00 0.00 39 1017.2
20191018183331 10 287 17.7 27.4 0.00 0.00 0.00 39 1017.2
20191018183227 10 295 14.5 27.4 0.00 0.00 0.00 39 1017.2
20191018183129 9 146 14.5 32.2 0.00 0.00 0.00 39 1017.1
20191018183044 9 292 16.1 32.2 0.00 0.00 0.00 39 1017.1
20191018182945 9 321 16.1 35.4 0.00 0.00 0.00 39 1017.1
20191018182845 9 300 16.1 35.4 0.00 0.00 0.00 39 1017.1
20191018182726 9 279 20.9 35.4 0.00 0.00 0.00 39 1017.2
20191018182642 9 302 20.9 35.4 0.00 0.00 0.00 40 1017.1
20191018182543 9 310 20.9 35.4 0.00 0.00 0.00 40 1017.1
20191018182439 9 306 19.3 38.6 0.00 0.00 0.00 40 1017.0
20191018182340 9 304 24.1 38.6 0.00 0.00 0.00 39 1017.0
20191018182236 9 284 22.5 38.6 0.00 0.00 0.00 40 1017.1
20191018182141 9 290 25.7 40.2 0.00 0.00 0.00 39 1017.0
20191018182037 9 294 25.7 40.2 0.00 0.00 0.00 39 1017.1
20191018181938 9 279 27.4 40.2 0.00 0.00 0.00 39 1017.0
20191018181834 9 291 30.6 40.2 0.00 0.00 0.00 39 1017.0
20191018181735 9 295 29.0 41.8 0.00 0.00 0.00 39 1017.0
20191018181631 9 291 30.6 41.8 0.00 0.00 0.00 40 1017.0
20191018181534 9 313 27.4 41.8 0.00 0.00 0.00 40 1017.0
20191018181434 9 308 24.1 41.8 0.00 0.00 0.00 40 1017.1
20191018181333 9 304 30.6 41.8 0.00 0.00 0.00 39 1017.0
20191018181233 9 296 32.2 41.8 0.00 0.00 0.00 40 1017.1
20191018181134 9 302 29.0 41.8 0.00 0.00 0.00 39 1017.0
20191018181030 9 281 32.2 41.8 0.00 0.00 0.00 39 1017.0
20191018180931 9 300 35.4 41.8 0.00 0.00 0.00 39 1016.8
20191018180831 9 298 25.7 41.8 0.00 0.00 0.00 40 1016.8
20191018180730 9 255 20.9 37.0 0.00 0.00 0.00 40 1016.9
20191018180630 9 308 24.1 37.0 0.00 0.00 0.00 39 1016.9
20191018180530 9 282 30.6 37.0 0.00 0.00 0.00 39 1016.9
20191018180429 9 304 30.6 37.0 0.00 0.00 0.00 39 1016.9
20191018180330 9 298 32.2 37.0 0.00 0.00 0.00 39 1016.9
20191018180230 9 296 32.2 37.0 0.00 0.00 0.00 39 1016.9
20191018180130 10 294 24.1 41.8 0.00 0.00 0.00 39 1016.9
20191018180029 10 272 25.7 41.8 0.00 0.00 0.00 39 1016.9
20191018175930 10 270 25.7 41.8 0.00 0.00 0.00 39 1016.9
20191018175826 10 281 25.7 41.8 0.00 0.00 0.00 40 1016.9
20191018175727 10 286 20.9 41.8 0.00 0.00 0.00 40 1016.9
20191018175643 10 292 25.7 41.8 0.00 0.00 0.00 39 1016.9
20191018175528 10 262 29.0 41.8 0.00 0.00 0.00 40 1016.8
20191018175444 10 287 27.4 41.8 0.00 0.00 0.00 40 1016.8
20191018175345 10 267 30.6 41.8 0.00 0.00 0.00 40 1016.8
20191018175241 10 282 32.2 41.8 0.00 0.00 0.00 40 1016.7
20191018175142 10 283 29.0 35.4 0.00 0.00 0.00 39 1016.8
20191018175038 10 296 25.7 35.4 0.00 0.00 0.00 39 1016.7
20191018174939 10 302 25.7 35.4 0.00 0.00 0.00 39 1016.7
20191018174840 10 289 29.0 41.8 0.00 0.00 0.00 39 1016.7
20191018174741 10 286 27.4 41.8 0.00 0.00 0.00 39 1016.6
20191018174633 10 277 24.1 41.8 0.00 0.00 0.00 39 1016.7
20191018174537 10 299 17.7 41.8 0.00 0.00 0.00 39 1016.7
20191018174437 10 269 19.3 41.8 0.00 0.00 0.00 39 1016.7
20191018174338 10 256 24.1 41.8 0.00 0.00 0.00 39 1016.6
20191018174237 10 275 17.7 41.8 0.00 0.00 0.00 39 1016.6
20191018174142 10 283 22.5 41.8 0.00 0.00 0.00 39 1016.6
20191018174036 10 299 27.4 41.8 0.00 0.00 0.00 39 1016.6
20191018173939 10 294 20.9 41.8 0.00 0.00 0.00 39 1016.6
20191018173835 10 270 14.5 30.6 0.00 0.00 0.00 39 1016.6
20191018173736 10 193 14.5 30.6 0.00 0.00 0.00 39 1016.6
20191018173632 10 296 20.9 30.6 0.00 0.00 0.00 39 1016.5
20191018173535 10 323 24.1 30.6 0.00 0.00 0.00 39 1016.5
20191018173435 10 288 19.3 27.4 0.00 0.00 0.00 39 1016.5
20191018173334 10 317 6.4 27.4 0.00 0.00 0.00 39 1016.4
20191018173232 10 355 9.7 24.1 0.00 0.00 0.00 39 1016.4
20191018173136 10 326 14.5 27.4 0.00 0.00 0.00 39 1016.4
20191018173035 10 319 12.9 27.4 0.00 0.00 0.00 39 1016.5
20191018172940 10 122 14.5 35.4 0.00 0.00 0.00 40 1016.4
20191018172836 10 311 9.7 35.4 0.00 0.00 0.00 40 1016.4
20191018172737 10 329 8.0 35.4 0.00 0.00 0.00 40 1016.4
20191018172633 10 209 4.8 35.4 0.00 0.00 0.00 40 1016.4
20191018172533 9 39 4.8 35.4 0.00 0.00 0.00 40 1016.3
20191018172433 9 35 8.0 35.4 0.00 0.00 0.00 40 1016.3
20191018172334 9 237 17.7 35.4 0.00 0.00 0.00 41 1016.3
20191018172234 9 300 19.3 35.4 0.00 0.00 0.00 41 1016.4
20191018172135 9 309 22.5 35.4 0.00 0.00 0.00 41 1016.4
20191018172031 8 349 14.5 35.4 0.00 0.00 0.00 41 1016.4
20191018171932 8 184 8.0 35.4 0.00 0.00 0.00 42 1016.5
20191018171828 8 350 17.7 35.4 0.00 0.00 0.00 42 1016.6
20191018171729 8 320 25.7 35.4 0.00 0.00 0.00 42 1016.6
20191018171629 8 336 27.4 38.6 0.00 0.00 0.00 42 1016.5
20191018171530 8 322 27.4 43.5 0.00 0.00 0.00 43 1016.5
20191018171426 8 320 22.5 45.1 0.00 0.00 0.00 43 1016.4
20191018171327 8 20 14.5 45.1 0.00 0.00 0.00 44 1016.4
20191018171243 8 269 17.7 45.1 0.00 0.00 0.00 44 1016.4
20191018171143 8 269 19.3 45.1 0.00 0.00 0.00 44 1016.4
20191018171041 8 338 20.9 45.1 0.00 0.00 0.00 44 1016.4
20191018170926 8 323 24.1 45.1 0.00 0.00 0.00 44 1016.4
20191018170842 8 327 30.6 45.1 0.00 0.00 0.00 44 1016.4
20191018170743 8 331 33.8 45.1 0.00 0.00 0.00 44 1016.4
20191018170639 8 292 35.4 45.1 0.00 0.00 0.00 44 1016.4
20191018170540 8 325 27.4 51.5 0.00 0.00 0.00 44 1016.4
20191018170436 8 293 35.4 51.5 0.00 0.00 0.00 43 1016.4
20191018170337 8 289 33.8 51.5 0.00 0.00 0.00 44 1016.4
20191018170235 8 298 30.6 51.5 0.00 0.00 0.00 44 1016.4
20191018170141 8 298 24.1 51.5 0.00 0.00 0.00 44 1016.4
20191018170036 8 318 29.0 51.5 0.00 0.00 0.00 43 1016.3
20191018165935 8 360 30.6 51.5 0.00 0.00 0.00 43 1016.3
20191018165834 8 306 35.4 51.5 0.00 0.00 0.00 43 1016.3
20191018165734 8 313 35.4 51.5 0.00 0.00 0.00 43 1016.2
20191018165638 8 306 38.6 51.5 0.00 0.00 0.00 44 1016.2
20191018165539 8 300 38.6 48.3 0.00 0.00 0.00 44 1016.1
20191018165436 8 303 29.0 48.3 0.00 0.00 0.00 44 1016.3
20191018165335 8 310 24.1 48.3 0.00 0.00 0.00 44 1016.3
20191018165233 8 333 20.9 48.3 0.00 0.00 0.00 44 1016.2
20191018165137 8 317 27.4 48.3 0.00 0.00 0.00 44 1016.2
20191018165037 8 326 33.8 48.3 0.00 0.00 0.00 44 1016.1
20191018164942 8 331 37.0 48.3 0.00 0.00 0.00 44 1016.2
20191018164837 8 334 38.6 48.3 0.00 0.00 0.00 44 1016.0
20191018164742 8 323 33.8 46.7 0.00 0.00 0.00 44 1016.1
20191018164638 8 5 30.6 46.7 0.00 0.00 0.00 45 1015.8
20191018164537 8 329 24.1 46.7 0.00 0.00 0.00 45 1015.8
20191018164437 7 137 14.5 40.2 0.00 0.00 0.00 45 1016.0
20191018164342 7 63 12.9 40.2 0.00 0.00 0.00 45 1015.8
20191018164237 7 309 16.1 40.2 0.00 0.00 0.00 45 1016.0
20191018164142 7 334 20.9 48.3 0.00 0.00 0.00 45 1015.8
20191018164038 7 327 17.7 49.9 0.00 0.00 0.00 45 1015.9
20191018163937 7 350 16.1 49.9 0.00 0.00 0.00 45 1015.8
20191018163835 7 25 16.1 49.9 0.00 0.00 0.00 45 1015.7
20191018163722 8 63 16.1 49.9 0.00 0.00 0.00 45 1015.7
20191018163642 8 175 20.9 53.1 0.00 0.00 0.00 45 1015.7
20191018163543 8 31 20.9 53.1 0.00 0.00 0.00 45 1015.7
20191018163439 8 313 20.9 53.1 0.00 0.00 0.00 45 1015.7
20191018163340 8 32 24.1 53.1 0.00 0.00 0.00 45 1015.7
20191018163235 8 15 30.6 61.2 0.00 0.00 0.00 45 1015.7
20191018163137 8 83 16.1 61.2 0.00 0.00 0.00 45 1015.7
20191018163039 8 328 16.1 61.2 0.00 0.00 0.00 45 1015.8
20191018162938 8 53 27.4 69.2 0.00 0.00 0.00 44 1015.8
20191018162838 8 324 32.2 69.2 0.00 0.00 0.00 44 1015.7
20191018162737 8 329 20.9 69.2 0.00 0.00 0.00 44 1015.6
20191018162637 8 333 27.4 69.2 0.00 0.00 0.00 44 1015.7
20191018162532 8 304 29.0 70.8 0.00 0.00 0.00 44 1015.8
20191018162427 8 288 37.0 70.8 0.00 0.00 0.00 45 1015.6
20191018162333 8 338 41.8 70.8 0.00 0.00 0.00 45 1015.6
20191018162229 8 310 43.5 70.8 0.00 0.00 0.00 45 1015.6
20191018162129 8 30 56.3 70.8 0.00 0.00 0.00 45 1015.4
20191018162026 7 326 48.3 70.8 0.00 0.00 0.00 46 1015.4
20191018161926 7 318 46.7 70.8 0.00 0.00 0.00 46 1015.3
20191018161843 7 334 48.3 70.8 0.00 0.00 0.00 46 1015.3
20191018161728 7 325 54.7 70.8 0.00 0.00 0.00 46 1015.3
20191018161644 7 340 46.7 61.2 0.00 0.00 0.00 46 1015.5
20191018161523 7 306 48.3 61.2 0.00 0.00 0.00 47 1015.4
20191018161443 7 308 46.7 61.2 0.00 0.00 0.00 47 1015.4
20191018161322 7 355 45.1 62.8 0.00 0.00 0.00 47 1015.1
20191018161242 7 320 38.6 62.8 0.00 0.00 0.00 47 1015.2
20191018161142 7 330 32.2 62.8 0.00 0.00 0.00 47 1015.3
20191018161043 7 355 30.6 62.8 0.00 0.00 0.00 48 1015.6
20191018160944 7 318 22.5 62.8 0.00 0.00 0.00 48 1015.5
20191018160839 7 309 22.5 62.8 0.00 0.00 0.00 48 1015.6
20191018160741 7 302 30.6 64.4 0.00 0.00 0.00 47 1015.6
20191018160637 7 317 38.6 67.6 0.00 0.00 0.00 48 1015.6
20191018160538 7 10 49.9 67.6 0.00 0.00 0.00 48 1015.5
20191018160433 7 328 35.4 67.6 0.00 0.00 0.00 48 1015.5
20191018160337 7 23 33.8 67.6 0.00 0.00 0.00 48 1015.5
20191018160238 7 355 38.6 67.6 0.00 0.00 0.00 48 1015.2
20191018160139 7 331 45.1 67.6 0.00 0.00 0.00 48 1015.5
20191018160033 7 304 43.5 67.6 0.00 0.00 0.00 48 1015.4
20191018155935 7 322 40.2 67.6 0.00 0.00 0.00 48 1015.3
20191018155830 7 331 51.5 67.6 0.00 0.00 0.00 49 1015.0
20191018155735 7 303 43.5 64.4 0.00 0.00 0.00 49 1015.3
20191018155633 7 308 53.1 64.4 0.00 0.00 0.00 49 1015.2
20191018155534 7 319 40.2 64.4 0.00 0.00 0.00 49 1015.1
20191018155430 7 341 46.7 64.4 0.00 0.00 0.00 49 1015.4
20191018155331 7 322 38.6 64.4 0.00 0.00 0.00 49 1015.4
20191018155227 7 334 46.7 64.4 0.00 0.00 0.00 49 1015.4
20191018155127 7 315 53.1 64.4 0.00 0.00 0.00 49 1015.4
20191018155027 7 199 40.2 64.4 0.00 0.00 0.00 49 1015.3
20191018154929 7 322 51.5 64.4 0.00 0.00 0.00 49 1015.4
20191018154823 7 333 53.1 64.4 0.00 0.00 0.00 49 1015.4
20191018154728 7 317 45.1 64.4 0.00 0.00 0.00 49 1015.4